Observation data for Tarzan on 12/09/2018      Previous  Date  Next       Current Mesonet Observations  Soil Data  Daily Summary Page  Observations in Plain Language
KTA1 090600Z 35004KT M00/M01 A3032 RMK A01 T10011006  RH  096%=      5-min Rain = 0
KTA1 090601Z 35005KT M00/M01 A3032 RMK A01 T10011006  RH  096%=      5-min Rain = 0
KTA1 090602Z 35004KT M00/M01 A3031 RMK A01 T10011006  RH  096%=      5-min Rain = 0
KTA1 090603Z 35004KT M00/M01 A3031 RMK A01 T10021007  RH  096%=      5-min Rain = 0
KTA1 090604Z 35004KT M00/M01 A3031 RMK A01 T10021007  RH  096%=      5-min Rain = 0
KTA1 090605Z 35004KT M00/M01 A3031 RMK A01 T10021007  RH  096%=      5-min Rain = 0
KTA1 090606Z 35004KT M00/M01 A3031 RMK A01 T10021007  RH  097%=      5-min Rain = 0
KTA1 090607Z 35005KT M00/M01 A3031 RMK A01 T10021007  RH  097%=      5-min Rain = 0
KTA1 090608Z 35004KT M00/M01 A3031 RMK A01 T10021007  RH  097%=      5-min Rain = 0
KTA1 090609Z 35005KT M00/M01 A3031 RMK A01 T10021007  RH  097%=      5-min Rain = 0
KTA1 090610Z 35004KT M00/M01 A3031 RMK A01 T10021006  RH  097%=      5-min Rain = 0
KTA1 090611Z 35005KT M00/M01 A3031 RMK A01 T10021007  RH  097%=      5-min Rain = 0
KTA1 090612Z 35005KT M00/M01 A3031 RMK A01 T10021007  RH  097%=      5-min Rain = 0
KTA1 090613Z 35005KT M00/M01 A3031 RMK A01 T10021006  RH  097%=      5-min Rain = 0
KTA1 090614Z 36005KT M00/M01 A3031 RMK A01 T10021007  RH  097%=      5-min Rain = 0
KTA1 090615Z 36005KT M00/M01 A3031 RMK A01 T10011006  RH  097%=      5-min Rain = 0
KTA1 090616Z 00005KT M00/M01 A3031 RMK A01 T10011006  RH  097%=      5-min Rain = 0
KTA1 090617Z 00005KT M00/M01 A3031 RMK A01 T10011006  RH  097%=      5-min Rain = 0
KTA1 090618Z 00005KT M00/M01 A3031 RMK A01 T10011005  RH  097%=      5-min Rain = 0
KTA1 090619Z 00005KT M00/M01 A3031 RMK A01 T10011005  RH  097%=      5-min Rain = 0
KTA1 090620Z 00005KT M00/M01 A3031 RMK A01 T10011005  RH  097%=      5-min Rain = 0
KTA1 090621Z 00005KT M00/M01 A3031 RMK A01 T10011005  RH  097%=      5-min Rain = 0
KTA1 090622Z 00005KT M00/M01 A3031 RMK A01 T10011006  RH  097%=      5-min Rain = 0
KTA1 090623Z 00004KT M00/M01 A3031 RMK A01 T10011006  RH  097%=      5-min Rain = 0
KTA1 090624Z 00004KT M00/M01 A3031 RMK A01 T10011006  RH  097%=      5-min Rain = 0
KTA1 090625Z 36004KT M00/M01 A3031 RMK A01 T10021006  RH  097%=      5-min Rain = 0
KTA1 090626Z 00004KT M00/M01 A3031 RMK A01 T10021007  RH  097%=      5-min Rain = 0
KTA1 090627Z 36004KT M00/M01 A3031 RMK A01 T10021006  RH  097%=      5-min Rain = 0
KTA1 090628Z 36004KT M00/M01 A3031 RMK A01 T10021007  RH  097%=      5-min Rain = 0
KTA1 090629Z 36004KT M00/M01 A3031 RMK A01 T10021007  RH  097%=      5-min Rain = 0
KTA1 090630Z 36004KT M00/M01 A3031 RMK A01 T10031007  RH  097%=      5-min Rain = 0
KTA1 090631Z 35004KT M00/M01 A3031 RMK A01 T10031008  RH  097%=      5-min Rain = 0
KTA1 090632Z 35004KT M00/M01 A3031 RMK A01 T10031008  RH  097%=      5-min Rain = 0
KTA1 090633Z 36004KT M00/M01 A303 RMK A01 T10031008  RH  097%=      5-min Rain = 0
KTA1 090634Z 00005KT M00/M01 A303 RMK A01 T10031008  RH  097%=      5-min Rain = 0
KTA1 090635Z 00005KT M00/M01 A303 RMK A01 T10031008  RH  097%=      5-min Rain = 0
KTA1 090636Z 00005KT M00/M01 A303 RMK A01 T10041008  RH  097%=      5-min Rain = 0
KTA1 090637Z 00005KT M00/M01 A303 RMK A01 T10041008  RH  097%=      5-min Rain = 0
KTA1 090638Z 00004KT M00/M01 A303 RMK A01 T10041008  RH  097%=      5-min Rain = 0
KTA1 090639Z 00004KT M00/M01 A303 RMK A01 T10041008  RH  097%=      5-min Rain = 0
KTA1 090640Z 00004KT M00/M01 A303 RMK A01 T10041008  RH  097%=      5-min Rain = 0
KTA1 090641Z 00005KT M00/M01 A303 RMK A01 T10041008  RH  097%=      5-min Rain = 0
KTA1 090642Z 36004KT M00/M01 A303 RMK A01 T10041008  RH  097%=      5-min Rain = 0
KTA1 090643Z 00004KT M00/M01 A303 RMK A01 T10041008  RH  097%=      5-min Rain = 0
KTA1 090644Z 36004KT M00/M01 A303 RMK A01 T10041008  RH  097%=      5-min Rain = 0
KTA1 090645Z 36004KT M00/M01 A303 RMK A01 T10031007  RH  097%=      5-min Rain = 0
KTA1 090646Z 35004KT M00/M01 A303 RMK A01 T10041007  RH  097%=      5-min Rain = 0
KTA1 090647Z 35004KT M00/M01 A303 RMK A01 T10041008  RH  097%=      5-min Rain = 0
KTA1 090648Z 35004KT M00/M01 A303 RMK A01 T10041008  RH  097%=      5-min Rain = 0
KTA1 090649Z 35004KT M01/M01 A303 RMK A01 T10051009  RH  097%=      5-min Rain = 0
KTA1 090650Z 35004KT M01/M01 A303 RMK A01 T10051009  RH  097%=      5-min Rain = 0
KTA1 090651Z 35004KT M01/M01 A303 RMK A01 T10051010  RH  097%=      5-min Rain = 0
KTA1 090652Z 35004KT M01/M01 A303 RMK A01 T10061010  RH  097%=      5-min Rain = 0
KTA1 090653Z 35004KT M01/M01 A303 RMK A01 T10061010  RH  097%=      5-min Rain = 0
KTA1 090654Z 36004KT M01/M01 A303 RMK A01 T10061010  RH  097%=      5-min Rain = 0
KTA1 090655Z 36004KT M01/M01 A303 RMK A01 T10061010  RH  097%=      5-min Rain = 0
KTA1 090656Z 36004KT M01/M01 A303 RMK A01 T10071010  RH  097%=      5-min Rain = 0
KTA1 090657Z 00004KT M01/M01 A303 RMK A01 T10061010  RH  097%=      5-min Rain = 0
KTA1 090658Z 00004KT M01/M01 A303 RMK A01 T10061010  RH  097%=      5-min Rain = 0
KTA1 090659Z 36004KT M01/M01 A303 RMK A01 T10061010  RH  098%=      5-min Rain = 0
KTA1 090700Z 35004KT M01/M01 A303 RMK A01 T10061009  RH  098%=      5-min Rain = 0
KTA1 090701Z 35004KT M01/M01 A303 RMK A01 T10061009  RH  098%=      5-min Rain = 0
KTA1 090702Z 35004KT M01/M01 A303 RMK A01 T10061009  RH  098%=      5-min Rain = 0
KTA1 090703Z 35004KT M01/M01 A303 RMK A01 T10061009  RH  098%=      5-min Rain = 0
KTA1 090704Z 35004KT M01/M01 A303 RMK A01 T10061009  RH  098%=      5-min Rain = 0
KTA1 090705Z 35004KT M01/M01 A303 RMK A01 T10061009  RH  098%=      5-min Rain = 0
KTA1 090706Z 35004KT M01/M01 A303 RMK A01 T10061010  RH  098%=      5-min Rain = 0
KTA1 090707Z 35004KT M01/M01 A303 RMK A01 T10071010  RH  098%=      5-min Rain = 0
KTA1 090708Z 35004KT M01/M01 A303 RMK A01 T10071010  RH  098%=      5-min Rain = 0
KTA1 090709Z 35004KT M01/M01 A303 RMK A01 T10071010  RH  098%=      5-min Rain = 0
KTA1 090710Z 35004KT M01/M01 A303 RMK A01 T10071010  RH  098%=      5-min Rain = 0
KTA1 090711Z 35004KT M01/M01 A303 RMK A01 T10071010  RH  098%=      5-min Rain = 0
KTA1 090712Z 35004KT M01/M01 A303 RMK A01 T10071010  RH  098%=      5-min Rain = 0
KTA1 090713Z 35004KT M01/M01 A303 RMK A01 T10071011  RH  098%=      5-min Rain = 0
KTA1 090714Z 35004KT M01/M01 A303 RMK A01 T10071011  RH  098%=      5-min Rain = 0
KTA1 090715Z 35004KT M01/M01 A303 RMK A01 T10081011  RH  098%=      5-min Rain = 0
KTA1 090716Z 35004KT M01/M01 A303 RMK A01 T10081011  RH  098%=      5-min Rain = 0
KTA1 090717Z 35004KT M01/M01 A303 RMK A01 T10081011  RH  098%=      5-min Rain = 0
KTA1 090718Z 35004KT M01/M01 A303 RMK A01 T10081011  RH  098%=      5-min Rain = 0
KTA1 090719Z 35004KT M01/M01 A303 RMK A01 T10081012  RH  098%=      5-min Rain = 0
KTA1 090720Z 00004KT M01/M01 A3029 RMK A01 T10081012  RH  098%=      5-min Rain = 0
KTA1 090721Z 00003KT M01/M01 A3029 RMK A01 T10081011  RH  098%=      5-min Rain = 0
KTA1 090722Z 00003KT M01/M01 A3029 RMK A01 T10081011  RH  098%=      5-min Rain = 0
KTA1 090723Z 00003KT M01/M01 A303 RMK A01 T10081011  RH  098%=      5-min Rain = 0
KTA1 090724Z 00003KT M01/M01 A303 RMK A01 T10081011  RH  098%=      5-min Rain = 0
KTA1 090725Z 00003KT M01/M01 A303 RMK A01 T10081011  RH  098%=      5-min Rain = 0
KTA1 090726Z 00003KT M01/M01 A303 RMK A01 T10081011  RH  098%=      5-min Rain = 0
KTA1 090727Z 35003KT M01/M01 A303 RMK A01 T10081012  RH  098%=      5-min Rain = 0
KTA1 090728Z 35003KT M01/M01 A303 RMK A01 T10091012  RH  098%=      5-min Rain = 0
KTA1 090729Z 35003KT M01/M01 A303 RMK A01 T10091012  RH  098%=      5-min Rain = 0
KTA1 090730Z 36003KT M01/M01 A3029 RMK A01 T10091012  RH  098%=      5-min Rain = 0
KTA1 090731Z 00002KT M01/M01 A3029 RMK A01 T10091012  RH  098%=      5-min Rain = 0
KTA1 090732Z 00002KT M01/M01 A3029 RMK A01 T10091012  RH  098%=      5-min Rain = 0
KTA1 090733Z 00002KT M01/M01 A3029 RMK A01 T10091012  RH  098%=      5-min Rain = 0
KTA1 090734Z 36002KT M01/M01 A3029 RMK A01 T10091012  RH  098%=      5-min Rain = 0
KTA1 090735Z 35002KT M01/M01 A3029 RMK A01 T10091012  RH  098%=      5-min Rain = 0
KTA1 090736Z 35003KT M01/M01 A3029 RMK A01 T10091012  RH  098%=      5-min Rain = 0
KTA1 090737Z 34003KT M01/M01 A303 RMK A01 T10091012  RH  098%=      5-min Rain = 0
KTA1 090738Z 34003KT M01/M01 A303 RMK A01 T10091011  RH  098%=      5-min Rain = 0
KTA1 090739Z 34003KT M01/M01 A303 RMK A01 T10091011  RH  098%=      5-min Rain = 0
KTA1 090740Z 34003KT M01/M01 A303 RMK A01 T10091012  RH  098%=      5-min Rain = 0
KTA1 090741Z 34003KT M01/M01 A303 RMK A01 T10091011  RH  098%=      5-min Rain = 0
KTA1 090742Z 34003KT M01/M01 A3029 RMK A01 T10091011  RH  098%=      5-min Rain = 0
KTA1 090743Z 34002KT M01/M01 A3029 RMK A01 T10091011  RH  098%=      5-min Rain = 0
KTA1 090744Z 34002KT M01/M01 A3029 RMK A01 T10091012  RH  098%=      5-min Rain = 0
KTA1 090745Z 34002KT M01/M01 A3029 RMK A01 T10091012  RH  098%=      5-min Rain = 0
KTA1 090746Z 33002KT M01/M01 A3029 RMK A01 T10101013  RH  098%=      5-min Rain = 0
KTA1 090747Z 33002KT M01/M01 A3029 RMK A01 T10101013  RH  098%=      5-min Rain = 0
KTA1 090748Z 33002KT M01/M01 A3029 RMK A01 T10111013  RH  098%=      5-min Rain = 0
KTA1 090749Z 33002KT M01/M01 A3029 RMK A01 T10111014  RH  098%=      5-min Rain = 0
KTA1 090750Z 33003KT M01/M01 A3029 RMK A01 T10111014  RH  098%=      5-min Rain = 0
KTA1 090751Z 33003KT M01/M01 A3029 RMK A01 T10111014  RH  098%=      5-min Rain = 0
KTA1 090752Z 33003KT M01/M01 A3029 RMK A01 T10121014  RH  098%=      5-min Rain = 0
KTA1 090753Z 33003KT M01/M01 A3029 RMK A01 T10111014  RH  098%=      5-min Rain = 0
KTA1 090754Z 34003KT M01/M01 A3029 RMK A01 T10111014  RH  098%=      5-min Rain = 0
KTA1 090755Z 34003KT M01/M01 A3029 RMK A01 T10111014  RH  098%=      5-min Rain = 0
KTA1 090756Z 34003KT M01/M02 A3029 RMK A01 T10121015  RH  098%=      5-min Rain = 0
KTA1 090757Z 34003KT M01/M01 A3029 RMK A01 T10121014  RH  098%=      5-min Rain = 0
KTA1 090758Z 34003KT M01/M02 A3029 RMK A01 T10121015  RH  098%=      5-min Rain = 0
KTA1 090759Z 34003KT M01/M02 A3029 RMK A01 T10121015  RH  098%=      5-min Rain = 0
KTA1 090800Z 34003KT M01/M02 A3029 RMK A01 T10121015  RH  098%=      5-min Rain = 0
KTA1 090801Z 35003KT M01/M02 A3029 RMK A01 T10121015  RH  098%=      5-min Rain = 0
KTA1 090802Z 35003KT M01/M02 A3029 RMK A01 T10121015  RH  098%=      5-min Rain = 0
KTA1 090803Z 35003KT M01/M02 A3029 RMK A01 T10131015  RH  098%=      5-min Rain = 0
KTA1 090804Z 36003KT M01/M02 A3029 RMK A01 T10131015  RH  098%=      5-min Rain = 0
KTA1 090805Z 35003KT M01/M02 A3029 RMK A01 T10131015  RH  098%=      5-min Rain = 0
KTA1 090806Z 35003KT M01/M02 A3029 RMK A01 T10131015  RH  098%=      5-min Rain = 0
KTA1 090807Z 35003KT M01/M02 A3029 RMK A01 T10131015  RH  098%=      5-min Rain = 0
KTA1 090808Z 35003KT M01/M02 A3029 RMK A01 T10131015  RH  098%=      5-min Rain = 0
KTA1 090809Z 00003KT M01/M02 A3029 RMK A01 T10131016  RH  098%=      5-min Rain = 0
KTA1 090810Z 00003KT M01/M02 A3029 RMK A01 T10131015  RH  098%=      5-min Rain = 0
KTA1 090811Z 00004KT M01/M01 A3028 RMK A01 T10121014  RH  098%=      5-min Rain = 0
KTA1 090812Z 00004KT M01/M01 A3028 RMK A01 T10121014  RH  098%=      5-min Rain = 0
KTA1 090813Z 36004KT M01/M01 A3028 RMK A01 T10111014  RH  098%=      5-min Rain = 0
KTA1 090814Z 35004KT M01/M01 A3028 RMK A01 T10111014  RH  098%=      5-min Rain = 0
KTA1 090815Z 35004KT M01/M01 A3028 RMK A01 T10111014  RH  098%=      5-min Rain = 0
KTA1 090816Z 35003KT M01/M01 A3028 RMK A01 T10121014  RH  098%=      5-min Rain = 0
KTA1 090817Z 36003KT M01/M01 A3028 RMK A01 T10121014  RH  098%=      5-min Rain = 0
KTA1 090818Z 36003KT M01/M01 A3028 RMK A01 T10121014  RH  098%=      5-min Rain = 0
KTA1 090819Z 36002KT M01/M01 A3028 RMK A01 T10121014  RH  098%=      5-min Rain = 0
KTA1 090820Z 35002KT M01/M01 A3028 RMK A01 T10121014  RH  098%=      5-min Rain = 0
KTA1 090821Z 35002KT M01/M01 A3029 RMK A01 T10121014  RH  098%=      5-min Rain = 0
KTA1 090822Z 35002KT M01/M02 A3029 RMK A01 T10121015  RH  098%=      5-min Rain = 0
KTA1 090823Z 35002KT M01/M02 A3029 RMK A01 T10121015  RH  098%=      5-min Rain = 0
KTA1 090824Z 35002KT M01/M02 A3029 RMK A01 T10131015  RH  098%=      5-min Rain = 0
KTA1 090825Z 35002KT M01/M02 A3029 RMK A01 T10131015  RH  098%=      5-min Rain = 0
KTA1 090826Z 32002KT M01/M02 A3029 RMK A01 T10131015  RH  098%=      5-min Rain = 0
KTA1 090827Z 31002KT M01/M02 A3029 RMK A01 T10121015  RH  098%=      5-min Rain = 0
KTA1 090828Z 30003KT M01/M02 A3029 RMK A01 T10121015  RH  098%=      5-min Rain = 0
KTA1 090829Z 30003KT M01/M02 A3029 RMK A01 T10121015  RH  098%=      5-min Rain = 0
KTA1 090830Z 30003KT M01/M02 A3029 RMK A01 T10121015  RH  098%=      5-min Rain = 0
KTA1 090831Z 31003KT M01/M02 A3029 RMK A01 T10131015  RH  098%=      5-min Rain = 0
KTA1 090832Z 31004KT M01/M02 A3029 RMK A01 T10131015  RH  098%=      5-min Rain = 0
KTA1 090833Z 31004KT M01/M02 A3029 RMK A01 T10131015  RH  098%=      5-min Rain = 0
KTA1 090834Z 31004KT M01/M02 A3029 RMK A01 T10131015  RH  098%=      5-min Rain = 0
KTA1 090835Z 31004KT M01/M02 A3029 RMK A01 T10131015  RH  098%=      5-min Rain = 0
KTA1 090836Z 31004KT M01/M02 A3029 RMK A01 T10131015  RH  098%=      5-min Rain = 0
KTA1 090837Z 31004KT M01/M02 A3029 RMK A01 T10121015  RH  098%=      5-min Rain = 0
KTA1 090838Z 32004KT M01/M02 A3029 RMK A01 T10121015  RH  098%=      5-min Rain = 0
KTA1 090839Z 32004KT M01/M02 A3029 RMK A01 T10121015  RH  098%=      5-min Rain = 0
KTA1 090840Z 32004KT M01/M02 A3029 RMK A01 T10121015  RH  098%=      5-min Rain = 0
KTA1 090841Z 32004KT M01/M02 A3029 RMK A01 T10121015  RH  098%=      5-min Rain = 0
KTA1 090842Z 32004KT M01/M02 A3029 RMK A01 T10131015  RH  098%=      5-min Rain = 0
KTA1 090843Z 32004KT M01/M02 A3029 RMK A01 T10131015  RH  098%=      5-min Rain = 0
KTA1 090844Z 32004KT M01/M02 A3029 RMK A01 T10131015  RH  098%=      5-min Rain = 0
KTA1 090845Z 32003KT M01/M02 A3029 RMK A01 T10131015  RH  098%=      5-min Rain = 0
KTA1 090846Z 32003KT M01/M02 A3029 RMK A01 T10131015  RH  098%=      5-min Rain = 0
KTA1 090847Z 32004KT M01/M02 A3029 RMK A01 T10131015  RH  098%=      5-min Rain = 0
KTA1 090848Z 32004KT M01/M02 A3029 RMK A01 T10131015  RH  098%=      5-min Rain = 0
KTA1 090849Z 32003KT M01/M02 A3029 RMK A01 T10131015  RH  098%=      5-min Rain = 0
KTA1 090850Z 32003KT M01/M02 A3029 RMK A01 T10131015  RH  098%=      5-min Rain = 0
KTA1 090851Z 31003KT M01/M02 A3029 RMK A01 T10131015  RH  098%=      5-min Rain = 0
KTA1 090852Z 31004KT M01/M02 A3029 RMK A01 T10131015  RH  098%=      5-min Rain = 0
KTA1 090853Z 31004KT M01/M02 A3029 RMK A01 T10131015  RH  098%=      5-min Rain = 0
KTA1 090854Z 31004KT M01/M02 A3029 RMK A01 T10131015  RH  098%=      5-min Rain = 0
KTA1 090855Z 31004KT M01/M02 A3029 RMK A01 T10131015  RH  098%=      5-min Rain = 0
KTA1 090856Z 31003KT M01/M02 A3029 RMK A01 T10131016  RH  098%=      5-min Rain = 0
KTA1 090857Z 31004KT M01/M02 A3029 RMK A01 T10131015  RH  098%=      5-min Rain = 0
KTA1 090858Z 32004KT M01/M02 A3029 RMK A01 T10131016  RH  098%=      5-min Rain = 0
KTA1 090859Z 32004KT M01/M02 A3029 RMK A01 T10131016  RH  098%=      5-min Rain = 0
KTA1 090900Z 32004KT M01/M02 A3029 RMK A01 T10131016  RH  098%=      5-min Rain = 0
KTA1 090901Z 33004KT M01/M02 A3029 RMK A01 T10131016  RH  098%=      5-min Rain = 0
KTA1 090902Z 33004KT M01/M02 A3029 RMK A01 T10131016  RH  098%=      5-min Rain = 0
KTA1 090903Z 33004KT M01/M02 A3029 RMK A01 T10131016  RH  098%=      5-min Rain = 0
KTA1 090904Z 33004KT M01/M02 A3029 RMK A01 T10131016  RH  098%=      5-min Rain = 0
KTA1 090905Z 33004KT M01/M02 A3029 RMK A01 T10131016  RH  098%=      5-min Rain = 0
KTA1 090906Z 33004KT M01/M02 A3029 RMK A01 T10131016  RH  098%=      5-min Rain = 0
KTA1 090907Z 33004KT M01/M02 A3029 RMK A01 T10131016  RH  098%=      5-min Rain = 0
KTA1 090908Z 33004KT M01/M02 A3029 RMK A01 T10131016  RH  098%=      5-min Rain = 0
KTA1 090909Z 33004KT M01/M02 A3029 RMK A01 T10131016  RH  098%=      5-min Rain = 0
KTA1 090910Z 33004KT M01/M02 A3029 RMK A01 T10131016  RH  098%=      5-min Rain = 0
KTA1 090911Z 33004KT M01/M02 A3029 RMK A01 T10131016  RH  098%=      5-min Rain = 0
KTA1 090912Z 33004KT M01/M02 A3029 RMK A01 T10131016  RH  098%=      5-min Rain = 0
KTA1 090913Z 33004KT M01/M02 A3029 RMK A01 T10131016  RH  098%=      5-min Rain = 0
KTA1 090914Z 33004KT M01/M02 A3029 RMK A01 T10131016  RH  098%=      5-min Rain = 0
KTA1 090915Z 33004KT M01/M02 A3029 RMK A01 T10131016  RH  098%=      5-min Rain = 0
KTA1 090916Z 33003KT M01/M02 A3029 RMK A01 T10131016  RH  098%=      5-min Rain = 0
KTA1 090917Z 33004KT M01/M02 A3029 RMK A01 T10131016  RH  098%=      5-min Rain = 0
KTA1 090918Z 33004KT M01/M02 A3029 RMK A01 T10131016  RH  098%=      5-min Rain = 0
KTA1 090919Z 34004KT M01/M02 A3029 RMK A01 T10131016  RH  098%=      5-min Rain = 0
KTA1 090920Z 34004KT M01/M02 A3029 RMK A01 T10131016  RH  098%=      5-min Rain = 0
KTA1 090921Z 34004KT M01/M02 A3029 RMK A01 T10131016  RH  098%=      5-min Rain = 0
KTA1 090922Z 34004KT M01/M02 A3029 RMK A01 T10131016  RH  098%=      5-min Rain = 0
KTA1 090923Z 34004KT M01/M02 A3029 RMK A01 T10131016  RH  098%=      5-min Rain = 0
KTA1 090924Z 34004KT M01/M02 A3029 RMK A01 T10131016  RH  098%=      5-min Rain = 0
KTA1 090925Z 34004KT M01/M02 A3029 RMK A01 T10131016  RH  098%=      5-min Rain = 0
KTA1 090926Z 35005KT M01/M02 A3029 RMK A01 T10131016  RH  098%=      5-min Rain = 0
KTA1 090927Z 35005KT M01/M02 A3029 RMK A01 T10131017  RH  097%=      5-min Rain = 0
KTA1 090928Z 34005KT M01/M02 A3029 RMK A01 T10141017  RH  097%=      5-min Rain = 0
KTA1 090929Z 35005KT M01/M02 A3029 RMK A01 T10141018  RH  097%=      5-min Rain = 0
KTA1 090930Z 34004KT M01/M02 A3029 RMK A01 T10141018  RH  097%=      5-min Rain = 0
KTA1 090931Z 34005KT M02/M02 A3029 RMK A01 T10151018  RH  097%=      5-min Rain = 0
KTA1 090932Z 34005KT M02/M02 A3029 RMK A01 T10151019  RH  097%=      5-min Rain = 0
KTA1 090933Z 35005KT M02/M02 A3029 RMK A01 T10151019  RH  097%=      5-min Rain = 0
KTA1 090934Z 35005KT M02/M02 A3029 RMK A01 T10151019  RH  097%=      5-min Rain = 0
KTA1 090935Z 35005KT M02/M02 A3029 RMK A01 T10161019  RH  097%=      5-min Rain = 0
KTA1 090936Z 35005KT M02/M02 A3029 RMK A01 T10161019  RH  097%=      5-min Rain = 0
KTA1 090937Z 34006KT M02/M02 A3029 RMK A01 T10151019  RH  097%=      5-min Rain = 0
KTA1 090938Z 35006KT M02/M02 A3029 RMK A01 T10161019  RH  097%=      5-min Rain = 0
KTA1 090939Z 34006KT M02/M02 A3029 RMK A01 T10161019  RH  097%=      5-min Rain = 0
KTA1 090940Z 34006KT M02/M02 A3029 RMK A01 T10151019  RH  097%=      5-min Rain = 0
KTA1 090941Z 34006KT M02/M02 A3029 RMK A01 T10161019  RH  097%=      5-min Rain = 0
KTA1 090942Z 35005KT M02/M02 A3029 RMK A01 T10161019  RH  097%=      5-min Rain = 0
KTA1 090943Z 34005KT M02/M02 A3029 RMK A01 T10151019  RH  097%=      5-min Rain = 0
KTA1 090944Z 34005KT M02/M02 A3029 RMK A01 T10151019  RH  097%=      5-min Rain = 0
KTA1 090945Z 34006KT M02/M02 A3029 RMK A01 T10151019  RH  097%=      5-min Rain = 0
KTA1 090946Z 34006KT M02/M02 A3029 RMK A01 T10151019  RH  097%=      5-min Rain = 0
KTA1 090947Z 34006KT M02/M02 A3029 RMK A01 T10151018  RH  097%=      5-min Rain = 0
KTA1 090948Z 34005KT M02/M02 A3029 RMK A01 T10151018  RH  097%=      5-min Rain = 0
KTA1 090949Z 34005KT M02/M02 A3029 RMK A01 T10151018  RH  097%=      5-min Rain = 0
KTA1 090950Z 34005KT M01/M02 A3029 RMK A01 T10141018  RH  097%=      5-min Rain = 0
KTA1 090951Z 33005KT M01/M02 A3029 RMK A01 T10141017  RH  097%=      5-min Rain = 0
KTA1 090952Z 33005KT M01/M02 A3029 RMK A01 T10141017  RH  097%=      5-min Rain = 0
KTA1 090953Z 33005KT M01/M02 A3029 RMK A01 T10131017  RH  098%=      5-min Rain = 0
KTA1 090954Z 33004KT M01/M02 A3029 RMK A01 T10131016  RH  098%=      5-min Rain = 0
KTA1 090955Z 34004KT M01/M02 A3029 RMK A01 T10131016  RH  097%=      5-min Rain = 0
KTA1 090956Z 34004KT M01/M02 A3029 RMK A01 T10131016  RH  097%=      5-min Rain = 0
KTA1 090957Z 34004KT M01/M02 A3029 RMK A01 T10131016  RH  097%=      5-min Rain = 0
KTA1 090958Z 34004KT M01/M02 A3029 RMK A01 T10131016  RH  097%=      5-min Rain = 0
KTA1 090959Z 34004KT M01/M02 A3029 RMK A01 T10131017  RH  097%=      5-min Rain = 0
KTA1 091000Z 33004KT M01/M02 A3029 RMK A01 T10131017  RH  097%=      5-min Rain = 0
KTA1 091001Z 32004KT M01/M02 A3029 RMK A01 T10131017  RH  097%=      5-min Rain = 0
KTA1 091002Z 32005KT M01/M02 A3029 RMK A01 T10131017  RH  097%=      5-min Rain = 0
KTA1 091003Z 33005KT M01/M02 A3029 RMK A01 T10131017  RH  097%=      5-min Rain = 0
KTA1 091004Z 33005KT M01/M02 A3029 RMK A01 T10131017  RH  097%=      5-min Rain = 0
KTA1 091005Z 33005KT M01/M02 A3029 RMK A01 T10131017  RH  097%=      5-min Rain = 0
KTA1 091006Z 33005KT M01/M02 A3029 RMK A01 T10131017  RH  097%=      5-min Rain = 0
KTA1 091007Z 33005KT M01/M02 A3029 RMK A01 T10131017  RH  097%=      5-min Rain = 0
KTA1 091008Z 33004KT M01/M02 A3029 RMK A01 T10131017  RH  097%=      5-min Rain = 0
KTA1 091009Z 33005KT M01/M02 A3029 RMK A01 T10131017  RH  097%=      5-min Rain = 0
KTA1 091010Z 33005KT M01/M02 A3029 RMK A01 T10131017  RH  097%=      5-min Rain = 0
KTA1 091011Z 33005KT M01/M02 A3029 RMK A01 T10131017  RH  097%=      5-min Rain = 0
KTA1 091012Z 33005KT M01/M02 A3029 RMK A01 T10131017  RH  097%=      5-min Rain = 0
KTA1 091013Z 33005KT M01/M02 A3029 RMK A01 T10131017  RH  097%=      5-min Rain = 0
KTA1 091014Z 33006KT M01/M02 A3029 RMK A01 T10131017  RH  097%=      5-min Rain = 0
KTA1 091015Z 33006KT M01/M02 A3029 RMK A01 T10131018  RH  097%=      5-min Rain = 0
KTA1 091016Z 33006KT M01/M02 A3029 RMK A01 T10131018  RH  097%=      5-min Rain = 0
KTA1 091017Z 32006KT M01/M02 A3029 RMK A01 T10131017  RH  097%=      5-min Rain = 0
KTA1 091018Z 32005KT M01/M02 A3029 RMK A01 T10131017  RH  097%=      5-min Rain = 0
KTA1 091019Z 32006KT M01/M02 A3029 RMK A01 T10121016  RH  097%=      5-min Rain = 0
KTA1 091020Z 32005KT M01/M02 A3029 RMK A01 T10121016  RH  097%=      5-min Rain = 0
KTA1 091021Z 32006KT M01/M02 A3029 RMK A01 T10121016  RH  097%=      5-min Rain = 0
KTA1 091022Z 32006KT M01/M02 A3029 RMK A01 T10111016  RH  097%=      5-min Rain = 0
KTA1 091023Z 32005KT M01/M02 A3029 RMK A01 T10121016  RH  097%=      5-min Rain = 0
KTA1 091024Z 32005KT M01/M02 A3029 RMK A01 T10111016  RH  096%=      5-min Rain = 0
KTA1 091025Z 32005KT M01/M02 A3029 RMK A01 T10111017  RH  096%=      5-min Rain = 0
KTA1 091026Z 31005KT M01/M02 A3029 RMK A01 T10121017  RH  096%=      5-min Rain = 0
KTA1 091027Z 31005KT M01/M02 A3029 RMK A01 T10121017  RH  096%=      5-min Rain = 0
KTA1 091028Z 32005KT M01/M02 A3029 RMK A01 T10121018  RH  096%=      5-min Rain = 0
KTA1 091029Z 32005KT M01/M02 A303 RMK A01 T10121018  RH  096%=      5-min Rain = 0
KTA1 091030Z 32005KT M01/M02 A303 RMK A01 T10131018  RH  096%=      5-min Rain = 0
KTA1 091031Z 31005KT M01/M02 A303 RMK A01 T10131018  RH  096%=      5-min Rain = 0
KTA1 091032Z 31005KT M01/M02 A303 RMK A01 T10131019  RH  096%=      5-min Rain = 0
KTA1 091033Z 30004KT M01/M02 A303 RMK A01 T10131019  RH  096%=      5-min Rain = 0
KTA1 091034Z 30005KT M01/M02 A303 RMK A01 T10131019  RH  096%=      5-min Rain = 0
KTA1 091035Z 30005KT M01/M02 A303 RMK A01 T10131019  RH  096%=      5-min Rain = 0
KTA1 091036Z 30005KT M01/M02 A303 RMK A01 T10131018  RH  096%=      5-min Rain = 0
KTA1 091037Z 30005KT M01/M02 A303 RMK A01 T10131018  RH  096%=      5-min Rain = 0
KTA1 091038Z 30005KT M01/M02 A303 RMK A01 T10141019  RH  096%=      5-min Rain = 0
KTA1 091039Z 30005KT M01/M02 A303 RMK A01 T10141019  RH  096%=      5-min Rain = 0
KTA1 091040Z 30005KT M01/M02 A303 RMK A01 T10141019  RH  096%=      5-min Rain = 0
KTA1 091041Z 30005KT M01/M02 A303 RMK A01 T10141019  RH  096%=      5-min Rain = 0
KTA1 091042Z 31005KT M01/M02 A303 RMK A01 T10141020  RH  096%=      5-min Rain = 0
KTA1 091043Z 31005KT M01/M02 A303 RMK A01 T10141019  RH  096%=      5-min Rain = 0
KTA1 091044Z 31005KT M02/M02 A303 RMK A01 T10151020  RH  096%=      5-min Rain = 0
KTA1 091045Z 31005KT M02/M02 A303 RMK A01 T10151020  RH  096%=      5-min Rain = 0
KTA1 091046Z 31005KT M02/M02 A303 RMK A01 T10151020  RH  096%=      5-min Rain = 0
KTA1 091047Z 31005KT M02/M02 A303 RMK A01 T10151020  RH  096%=      5-min Rain = 0
KTA1 091048Z 31005KT M02/M02 A303 RMK A01 T10151020  RH  096%=      5-min Rain = 0
KTA1 091049Z 31006KT M02/M02 A303 RMK A01 T10151020  RH  096%=      5-min Rain = 0
KTA1 091050Z 31006KT M01/M02 A303 RMK A01 T10141020  RH  096%=      5-min Rain = 0
KTA1 091051Z 31006KT M02/M02 A303 RMK A01 T10151020  RH  096%=      5-min Rain = 0
KTA1 091052Z 31006KT M02/M02 A303 RMK A01 T10151020  RH  096%=      5-min Rain = 0
KTA1 091053Z 32006KT M01/M02 A303 RMK A01 T10141020  RH  096%=      5-min Rain = 0
KTA1 091054Z 32005KT M02/M02 A303 RMK A01 T10151020  RH  096%=      5-min Rain = 0
KTA1 091055Z 32006KT M01/M02 A303 RMK A01 T10141019  RH  096%=      5-min Rain = 0
KTA1 091056Z 32006KT M01/M02 A303 RMK A01 T10141019  RH  096%=      5-min Rain = 0
KTA1 091057Z 32005KT M01/M02 A3031 RMK A01 T10141019  RH  096%=      5-min Rain = 0
KTA1 091058Z 32006KT M01/M02 A3031 RMK A01 T10141019  RH  096%=      5-min Rain = 0
KTA1 091059Z 32005KT M01/M02 A3031 RMK A01 T10141019  RH  096%=      5-min Rain = 0
KTA1 091100Z 32005KT M01/M02 A3031 RMK A01 T10141019  RH  096%=      5-min Rain = 0
KTA1 091101Z 32005KT M01/M02 A3031 RMK A01 T10141019  RH  096%=      5-min Rain = 0
KTA1 091102Z 33006KT M01/M02 A3031 RMK A01 T10141019  RH  096%=      5-min Rain = 0
KTA1 091103Z 33005KT M01/M02 A3031 RMK A01 T10131019  RH  096%=      5-min Rain = 0
KTA1 091104Z 33005KT M01/M02 A3031 RMK A01 T10141019  RH  096%=      5-min Rain = 0
KTA1 091105Z 33006KT M01/M02 A3031 RMK A01 T10141019  RH  096%=      5-min Rain = 0
KTA1 091106Z 33006KT M01/M02 A3031 RMK A01 T10141019  RH  096%=      5-min Rain = 0
KTA1 091107Z 33005KT M01/M02 A3031 RMK A01 T10141019  RH  096%=      5-min Rain = 0
KTA1 091108Z 33005KT M01/M02 A3031 RMK A01 T10131019  RH  096%=      5-min Rain = 0
KTA1 091109Z 33005KT M01/M02 A3031 RMK A01 T10131019  RH  096%=      5-min Rain = 0
KTA1 091110Z 33005KT M01/M02 A3031 RMK A01 T10131019  RH  096%=      5-min Rain = 0
KTA1 091111Z 34005KT M01/M02 A3031 RMK A01 T10131019  RH  096%=      5-min Rain = 0
KTA1 091112Z 34004KT M01/M02 A3031 RMK A01 T10131019  RH  096%=      5-min Rain = 0
KTA1 091113Z 34004KT M01/M02 A3031 RMK A01 T10131019  RH  096%=      5-min Rain = 0
KTA1 091114Z 34004KT M01/M02 A303 RMK A01 T10131019  RH  096%=      5-min Rain = 0
KTA1 091115Z 35005KT M01/M02 A303 RMK A01 T10131019  RH  096%=      5-min Rain = 0
KTA1 091116Z 34004KT M01/M02 A303 RMK A01 T10131019  RH  096%=      5-min Rain = 0
KTA1 091117Z 34005KT M01/M02 A303 RMK A01 T10131019  RH  096%=      5-min Rain = 0
KTA1 091118Z 34005KT M01/M02 A303 RMK A01 T10131019  RH  096%=      5-min Rain = 0
KTA1 091119Z 34005KT M01/M02 A303 RMK A01 T10131019  RH  096%=      5-min Rain = 0
KTA1 091120Z 34005KT M01/M02 A303 RMK A01 T10131020  RH  096%=      5-min Rain = 0
KTA1 091121Z 34005KT M01/M02 A3031 RMK A01 T10141020  RH  096%=      5-min Rain = 0
KTA1 091122Z 35005KT M01/M02 A3031 RMK A01 T10141020  RH  096%=      5-min Rain = 0
KTA1 091123Z 34005KT M01/M02 A303 RMK A01 T10141020  RH  096%=      5-min Rain = 0
KTA1 091124Z 35005KT M02/M02 A303 RMK A01 T10151021  RH  096%=      5-min Rain = 0
KTA1 091125Z 35005KT M02/M02 A303 RMK A01 T10151021  RH  096%=      5-min Rain = 0
KTA1 091126Z 35005KT M02/M02 A303 RMK A01 T10151021  RH  096%=      5-min Rain = 0
KTA1 091127Z 35005KT M02/M02 A303 RMK A01 T10151021  RH  096%=      5-min Rain = 0
KTA1 091128Z 35005KT M02/M02 A303 RMK A01 T10151021  RH  096%=      5-min Rain = 0
KTA1 091129Z 35005KT M02/M02 A303 RMK A01 T10161021  RH  096%=      5-min Rain = 0
KTA1 091130Z 35005KT M02/M02 A303 RMK A01 T10161022  RH  096%=      5-min Rain = 0
KTA1 091131Z 34005KT M02/M02 A3031 RMK A01 T10161022  RH  096%=      5-min Rain = 0
KTA1 091132Z 34005KT M02/M02 A303 RMK A01 T10161022  RH  096%=      5-min Rain = 0
KTA1 091133Z 34005KT M02/M02 A303 RMK A01 T10161022  RH  096%=      5-min Rain = 0
KTA1 091134Z 34005KT M02/M02 A303 RMK A01 T10161022  RH  096%=      5-min Rain = 0
KTA1 091135Z 34005KT M02/M02 A303 RMK A01 T10161022  RH  096%=      5-min Rain = 0
KTA1 091136Z 34005KT M02/M02 A3031 RMK A01 T10161022  RH  096%=      5-min Rain = 0
KTA1 091137Z 33005KT M02/M02 A3031 RMK A01 T10161022  RH  096%=      5-min Rain = 0
KTA1 091138Z 33005KT M02/M02 A3031 RMK A01 T10171022  RH  096%=      5-min Rain = 0
KTA1 091139Z 33005KT M02/M02 A3031 RMK A01 T10171023  RH  096%=      5-min Rain = 0
KTA1 091140Z 33005KT M02/M02 A3031 RMK A01 T10171022  RH  096%=      5-min Rain = 0
KTA1 091141Z 33005KT M02/M02 A3031 RMK A01 T10171022  RH  096%=      5-min Rain = 0
KTA1 091142Z 32005KT M02/M02 A3031 RMK A01 T10161021  RH  096%=      5-min Rain = 0
KTA1 091143Z 32004KT M02/M02 A3031 RMK A01 T10161020  RH  097%=      5-min Rain = 0
KTA1 091144Z 32004KT M02/M02 A3031 RMK A01 T10151020  RH  097%=      5-min Rain = 0
KTA1 091145Z 32004KT M02/M02 A3031 RMK A01 T10151020  RH  097%=      5-min Rain = 0
KTA1 091146Z 32004KT M02/M02 A3031 RMK A01 T10151019  RH  097%=      5-min Rain = 0
KTA1 091147Z 32005KT M01/M02 A3031 RMK A01 T10141019  RH  097%=      5-min Rain = 0
KTA1 091148Z 32005KT M02/M02 A3031 RMK A01 T10151019  RH  097%=      5-min Rain = 0
KTA1 091149Z 32005KT M01/M02 A3031 RMK A01 T10141019  RH  097%=      5-min Rain = 0
KTA1 091150Z 32005KT M01/M02 A3031 RMK A01 T10141019  RH  097%=      5-min Rain = 0
KTA1 091151Z 32005KT M01/M02 A3031 RMK A01 T10141019  RH  096%=      5-min Rain = 0
KTA1 091152Z 32005KT M01/M02 A3031 RMK A01 T10141019  RH  096%=      5-min Rain = 0
KTA1 091153Z 32005KT M01/M02 A3031 RMK A01 T10141019  RH  096%=      5-min Rain = 0
KTA1 091154Z 33005KT M01/M02 A3031 RMK A01 T10141019  RH  096%=      5-min Rain = 0
KTA1 091155Z 33005KT M01/M02 A3031 RMK A01 T10141019  RH  096%=      5-min Rain = 0
KTA1 091156Z 33005KT M01/M02 A3031 RMK A01 T10141019  RH  096%=      5-min Rain = 0
KTA1 091157Z 33005KT M01/M02 A3032 RMK A01 T10141019  RH  096%=      5-min Rain = 0
KTA1 091158Z 33005KT M01/M02 A3032 RMK A01 T10141019  RH  096%=      5-min Rain = 0
KTA1 091159Z 33005KT M01/M02 A3032 RMK A01 T10131018  RH  096%=      5-min Rain = 0
KTA1 091200Z 33005KT M01/M02 A3032 RMK A01 T10131019  RH  096%=      5-min Rain = 0
KTA1 091201Z 33005KT M01/M02 A3032 RMK A01 T10131018  RH  096%=      5-min Rain = 0
KTA1 091202Z 33005KT M01/M02 A3032 RMK A01 T10131018  RH  096%=      5-min Rain = 0
KTA1 091203Z 33005KT M01/M02 A3032 RMK A01 T10131018  RH  096%=      5-min Rain = 0
KTA1 091204Z 33005KT M01/M02 A3032 RMK A01 T10121018  RH  096%=      5-min Rain = 0
KTA1 091205Z 33005KT M01/M02 A3032 RMK A01 T10121018  RH  096%=      5-min Rain = 0
KTA1 091206Z 34005KT M01/M02 A3032 RMK A01 T10121017  RH  096%=      5-min Rain = 0
KTA1 091207Z 33005KT M01/M02 A3032 RMK A01 T10121017  RH  096%=      5-min Rain = 0
KTA1 091208Z 34006KT M01/M02 A3032 RMK A01 T10121017  RH  096%=      5-min Rain = 0
KTA1 091209Z 33005KT M01/M02 A3032 RMK A01 T10121018  RH  096%=      5-min Rain = 0
KTA1 091210Z 34005KT M01/M02 A3032 RMK A01 T10121018  RH  096%=      5-min Rain = 0
KTA1 091211Z 34004KT M01/M02 A3032 RMK A01 T10121018  RH  096%=      5-min Rain = 0
KTA1 091212Z 34005KT M01/M02 A3032 RMK A01 T10121018  RH  096%=      5-min Rain = 0
KTA1 091213Z 35005KT M01/M02 A3032 RMK A01 T10121018  RH  096%=      5-min Rain = 0
KTA1 091214Z 35005KT M01/M02 A3032 RMK A01 T10121018  RH  096%=      5-min Rain = 0
KTA1 091215Z 35005KT M01/M02 A3032 RMK A01 T10121018  RH  096%=      5-min Rain = 0
KTA1 091216Z 34004KT M01/M02 A3032 RMK A01 T10121019  RH  096%=      5-min Rain = 0
KTA1 091217Z 34005KT M01/M02 A3032 RMK A01 T10131019  RH  096%=      5-min Rain = 0
KTA1 091218Z 34004KT M01/M02 A3032 RMK A01 T10131020  RH  095%=      5-min Rain = 0
KTA1 091219Z 35004KT M01/M02 A3032 RMK A01 T10141020  RH  095%=      5-min Rain = 0
KTA1 091220Z 35004KT M01/M02 A3032 RMK A01 T10141021  RH  095%=      5-min Rain = 0
KTA1 091221Z 35004KT M02/M02 A3032 RMK A01 T10151021  RH  095%=      5-min Rain = 0
KTA1 091222Z 35005KT M02/M02 A3032 RMK A01 T10151021  RH  096%=      5-min Rain = 0
KTA1 091223Z 35005KT M02/M02 A3032 RMK A01 T10151021  RH  096%=      5-min Rain = 0
KTA1 091224Z 35005KT M02/M02 A3032 RMK A01 T10161022  RH  096%=      5-min Rain = 0
KTA1 091225Z 35005KT M02/M02 A3032 RMK A01 T10161022  RH  096%=      5-min Rain = 0
KTA1 091226Z 35005KT M02/M02 A3032 RMK A01 T10161022  RH  096%=      5-min Rain = 0
KTA1 091227Z 35005KT M02/M02 A3032 RMK A01 T10161021  RH  096%=      5-min Rain = 0
KTA1 091228Z 35005KT M02/M02 A3032 RMK A01 T10161021  RH  096%=      5-min Rain = 0
KTA1 091229Z 36004KT M02/M02 A3032 RMK A01 T10161021  RH  096%=      5-min Rain = 0
KTA1 091230Z 36005KT M02/M02 A3032 RMK A01 T10161021  RH  096%=      5-min Rain = 0
KTA1 091231Z 35005KT M02/M02 A3032 RMK A01 T10161021  RH  096%=      5-min Rain = 0
KTA1 091232Z 35005KT M02/M02 A3032 RMK A01 T10161021  RH  097%=      5-min Rain = 0
KTA1 091233Z 35005KT M02/M02 A3032 RMK A01 T10161021  RH  097%=      5-min Rain = 0
KTA1 091234Z 35005KT M02/M02 A3033 RMK A01 T10161020  RH  097%=      5-min Rain = 0
KTA1 091235Z 35005KT M02/M02 A3033 RMK A01 T10161020  RH  097%=      5-min Rain = 0
KTA1 091236Z 35005KT M02/M02 A3033 RMK A01 T10161020  RH  097%=      5-min Rain = 0
KTA1 091237Z 35005KT M02/M02 A3033 RMK A01 T10161020  RH  097%=      5-min Rain = 0
KTA1 091238Z 34005KT M02/M02 A3033 RMK A01 T10161020  RH  097%=      5-min Rain = 0
KTA1 091239Z 34005KT M02/M02 A3033 RMK A01 T10151020  RH  097%=      5-min Rain = 0
KTA1 091240Z 34005KT M02/M02 A3033 RMK A01 T10151020  RH  097%=      5-min Rain = 0
KTA1 091241Z 34005KT M02/M02 A3033 RMK A01 T10151019  RH  097%=      5-min Rain = 0
KTA1 091242Z 35005KT M02/M02 A3033 RMK A01 T10151019  RH  097%=      5-min Rain = 0
KTA1 091243Z 35005KT M01/M02 A3033 RMK A01 T10141018  RH  097%=      5-min Rain = 0
KTA1 091244Z 35005KT M01/M02 A3033 RMK A01 T10141018  RH  097%=      5-min Rain = 0
KTA1 091245Z 35005KT M01/M02 A3033 RMK A01 T10131017  RH  097%=      5-min Rain = 0
KTA1 091246Z 35004KT M01/M02 A3033 RMK A01 T10131017  RH  097%=      5-min Rain = 0
KTA1 091247Z 35004KT M01/M02 A3033 RMK A01 T10121017  RH  097%=      5-min Rain = 0
KTA1 091248Z 35004KT M01/M02 A3033 RMK A01 T10121017  RH  097%=      5-min Rain = 0
KTA1 091249Z 35004KT M01/M02 A3033 RMK A01 T10121016  RH  097%=      5-min Rain = 0
KTA1 091250Z 36004KT M01/M02 A3033 RMK A01 T10121017  RH  096%=      5-min Rain = 0
KTA1 091251Z 35004KT M01/M02 A3033 RMK A01 T10121017  RH  096%=      5-min Rain = 0
KTA1 091252Z 35004KT M01/M02 A3033 RMK A01 T10111017  RH  096%=      5-min Rain = 0
KTA1 091253Z 36004KT M01/M02 A3033 RMK A01 T10121017  RH  096%=      5-min Rain = 0
KTA1 091254Z 36004KT M01/M02 A3033 RMK A01 T10111017  RH  096%=      5-min Rain = 0
KTA1 091255Z 00004KT M01/M02 A3033 RMK A01 T10111016  RH  096%=      5-min Rain = 0
KTA1 091256Z 00004KT M01/M02 A3033 RMK A01 T10111016  RH  096%=      5-min Rain = 0
KTA1 091257Z 00004KT M01/M02 A3033 RMK A01 T10101015  RH  096%=      5-min Rain = 0
KTA1 091258Z 00005KT M01/M02 A3033 RMK A01 T10101015  RH  096%=      5-min Rain = 0
KTA1 091259Z 00005KT M01/M02 A3033 RMK A01 T10101015  RH  096%=      5-min Rain = 0
KTA1 091300Z 00005KT M01/M02 A3033 RMK A01 T10091015  RH  096%=      5-min Rain = 0
KTA1 091301Z 36005KT M01/M01 A3033 RMK A01 T10091014  RH  096%=      5-min Rain = 0
KTA1 091302Z 36005KT M01/M02 A3033 RMK A01 T10091015  RH  096%=      5-min Rain = 0
KTA1 091303Z 35006KT M01/M01 A3033 RMK A01 T10081014  RH  096%=      5-min Rain = 0
KTA1 091304Z 35006KT M01/M01 A3033 RMK A01 T10081014  RH  095%=      5-min Rain = 0
KTA1 091305Z 35005KT M01/M01 A3033 RMK A01 T10081014  RH  095%=      5-min Rain = 0
KTA1 091306Z 35006KT M01/M01 A3033 RMK A01 T10081014  RH  095%=      5-min Rain = 0
KTA1 091307Z 35006KT M01/M02 A3033 RMK A01 T10081015  RH  095%=      5-min Rain = 0
KTA1 091308Z 35006KT M01/M02 A3034 RMK A01 T10071015  RH  095%=      5-min Rain = 0
KTA1 091309Z 34005KT M01/M01 A3034 RMK A01 T10071014  RH  095%=      5-min Rain = 0
KTA1 091310Z 34005KT M01/M01 A3034 RMK A01 T10071014  RH  095%=      5-min Rain = 0
KTA1 091311Z 34005KT M01/M01 A3034 RMK A01 T10071014  RH  095%=      5-min Rain = 0
KTA1 091312Z 34005KT M01/M01 A3034 RMK A01 T10071014  RH  095%=      5-min Rain = 0
KTA1 091313Z 34006KT M01/M01 A3034 RMK A01 T10071014  RH  095%=      5-min Rain = 0
KTA1 091314Z 35005KT M01/M01 A3034 RMK A01 T10061014  RH  095%=      5-min Rain = 0
KTA1 091315Z 35005KT M01/M01 A3034 RMK A01 T10061014  RH  095%=      5-min Rain = 0
KTA1 091316Z 35005KT M01/M01 A3034 RMK A01 T10061014  RH  095%=      5-min Rain = 0
KTA1 091317Z 34004KT M01/M01 A3034 RMK A01 T10061013  RH  095%=      5-min Rain = 0
KTA1 091318Z 34005KT M01/M01 A3034 RMK A01 T10061013  RH  095%=      5-min Rain = 0
KTA1 091319Z 34004KT M01/M01 A3034 RMK A01 T10051013  RH  095%=      5-min Rain = 0
KTA1 091320Z 34004KT M01/M01 A3034 RMK A01 T10051012  RH  095%=      5-min Rain = 0
KTA1 091321Z 34003KT M01/M01 A3034 RMK A01 T10051012  RH  095%=      5-min Rain = 0
KTA1 091322Z 33003KT M01/M01 A3034 RMK A01 T10051012  RH  095%=      5-min Rain = 0
KTA1 091323Z 33003KT M00/M01 A3034 RMK A01 T10041012  RH  095%=      5-min Rain = 0
KTA1 091324Z 34003KT M00/M01 A3034 RMK A01 T10041012  RH  095%=      5-min Rain = 0
KTA1 091325Z 33003KT M00/M01 A3034 RMK A01 T10041011  RH  095%=      5-min Rain = 0
KTA1 091326Z 34004KT M00/M01 A3035 RMK A01 T10041011  RH  095%=      5-min Rain = 0
KTA1 091327Z 33004KT M00/M01 A3035 RMK A01 T10041012  RH  095%=      5-min Rain = 0
KTA1 091328Z 33003KT M00/M01 A3035 RMK A01 T10041012  RH  095%=      5-min Rain = 0
KTA1 091329Z 34003KT M00/M01 A3035 RMK A01 T10041012  RH  095%=      5-min Rain = 0
KTA1 091330Z 34004KT M00/M01 A3035 RMK A01 T10041012  RH  095%=      5-min Rain = 0
KTA1 091331Z 33004KT M00/M01 A3035 RMK A01 T10041012  RH  095%=      5-min Rain = 0
KTA1 091332Z 33004KT M00/M01 A3035 RMK A01 T10041012  RH  095%=      5-min Rain = 0
KTA1 091333Z 33004KT M00/M01 A3035 RMK A01 T10041012  RH  095%=      5-min Rain = 0
KTA1 091334Z 33003KT M00/M01 A3035 RMK A01 T10041012  RH  095%=      5-min Rain = 0
KTA1 091335Z 34003KT M00/M01 A3035 RMK A01 T10041012  RH  095%=      5-min Rain = 0
KTA1 091336Z 33004KT M00/M01 A3035 RMK A01 T10041012  RH  095%=      5-min Rain = 0
KTA1 091337Z 33004KT M00/M01 A3035 RMK A01 T10041012  RH  094%=      5-min Rain = 0
KTA1 091338Z 33003KT M00/M01 A3035 RMK A01 T10031012  RH  094%=      5-min Rain = 0
KTA1 091339Z 34003KT M00/M01 A3035 RMK A01 T10041012  RH  094%=      5-min Rain = 0
KTA1 091340Z 33003KT M00/M01 A3035 RMK A01 T10031011  RH  094%=      5-min Rain = 0
KTA1 091341Z 33004KT M00/M01 A3035 RMK A01 T10031011  RH  095%=      5-min Rain = 0
KTA1 091342Z 34004KT M00/M01 A3035 RMK A01 T10031011  RH  095%=      5-min Rain = 0
KTA1 091343Z 34004KT M00/M01 A3035 RMK A01 T10031011  RH  094%=      5-min Rain = 0
KTA1 091344Z 35004KT M00/M01 A3035 RMK A01 T10031011  RH  094%=      5-min Rain = 0
KTA1 091345Z 35004KT M00/M01 A3035 RMK A01 T10031011  RH  094%=      5-min Rain = 0
KTA1 091346Z 35004KT M00/M01 A3035 RMK A01 T10031011  RH  094%=      5-min Rain = 0
KTA1 091347Z 35004KT M00/M01 A3035 RMK A01 T10031011  RH  094%=      5-min Rain = 0
KTA1 091348Z 36004KT M00/M01 A3035 RMK A01 T10021010  RH  094%=      5-min Rain = 0
KTA1 091349Z 35004KT M00/M01 A3036 RMK A01 T10021010  RH  094%=      5-min Rain = 0
KTA1 091350Z 35004KT M00/M01 A3036 RMK A01 T10021010  RH  094%=      5-min Rain = 0
KTA1 091351Z 35004KT M00/M01 A3036 RMK A01 T10021011  RH  094%=      5-min Rain = 0
KTA1 091352Z 35004KT M00/M01 A3036 RMK A01 T10021010  RH  094%=      5-min Rain = 0
KTA1 091353Z 35004KT M00/M01 A3036 RMK A01 T10021010  RH  094%=      5-min Rain = 0
KTA1 091354Z 35004KT M00/M01 A3036 RMK A01 T10011010  RH  094%=      5-min Rain = 0
KTA1 091355Z 35004KT M00/M01 A3036 RMK A01 T10011010  RH  094%=      5-min Rain = 0
KTA1 091356Z 35004KT M00/M01 A3036 RMK A01 T10011010  RH  094%=      5-min Rain = 0
KTA1 091357Z 35004KT M00/M01 A3036 RMK A01 T10011010  RH  094%=      5-min Rain = 0
KTA1 091358Z 35004KT M00/M01 A3036 RMK A01 T10011010  RH  094%=      5-min Rain = 0
KTA1 091359Z 35004KT M00/M01 A3036 RMK A01 T10011010  RH  094%=      5-min Rain = 0
KTA1 091400Z 35003KT M00/M01 A3036 RMK A01 T10011010  RH  094%=      5-min Rain = 0
KTA1 091401Z 34004KT M00/M01 A3036 RMK A01 T10011010  RH  094%=      5-min Rain = 0
KTA1 091402Z 35003KT 00/01 A3036 RMK A01 T00-000-9  RH  094%=      5-min Rain = 0
KTA1 091403Z 34003KT 00/01 A3036 RMK A01 T00-000-9  RH  094%=      5-min Rain = 0
KTA1 091404Z 34004KT 00/01 A3036 RMK A01 T00-000-9  RH  094%=      5-min Rain = 0
KTA1 091405Z 34004KT 00/01 A3036 RMK A01 T00-000-9  RH  094%=      5-min Rain = 0
KTA1 091406Z 33004KT 00/01 A3036 RMK A01 T000000-9  RH  094%=      5-min Rain = 0
KTA1 091407Z 33003KT 00/01 A3036 RMK A01 T00-000-9  RH  093%=      5-min Rain = 0
KTA1 091408Z 32003KT 00/M01 A3036 RMK A01 T00011009  RH  093%=      5-min Rain = 0
KTA1 091409Z 32003KT 00/M01 A3036 RMK A01 T00011009  RH  093%=      5-min Rain = 0
KTA1 091410Z 31002KT 00/M01 A3036 RMK A01 T00011009  RH  093%=      5-min Rain = 0
KTA1 091411Z 31003KT 00/M01 A3037 RMK A01 T00011009  RH  093%=      5-min Rain = 0
KTA1 091412Z 31003KT 00/M01 A3037 RMK A01 T00011009  RH  093%=      5-min Rain = 0
KTA1 091413Z 31003KT 00/M01 A3037 RMK A01 T00021009  RH  093%=      5-min Rain = 0
KTA1 091414Z 32003KT 00/M01 A3037 RMK A01 T00021008  RH  092%=      5-min Rain = 0
KTA1 091415Z 32003KT 00/M01 A3037 RMK A01 T00021009  RH  092%=      5-min Rain = 0
KTA1 091416Z 31003KT 00/M01 A3037 RMK A01 T00031009  RH  092%=      5-min Rain = 0
KTA1 091417Z 31002KT 00/M01 A3037 RMK A01 T00031008  RH  092%=      5-min Rain = 0
KTA1 091418Z 32003KT 00/M01 A3037 RMK A01 T00031007  RH  092%=      5-min Rain = 0
KTA1 091419Z 32002KT 00/M01 A3037 RMK A01 T00041007  RH  093%=      5-min Rain = 0
KTA1 091420Z 32003KT 00/M01 A3037 RMK A01 T00041007  RH  093%=      5-min Rain = 0
KTA1 091421Z 32004KT 00/M01 A3037 RMK A01 T00041007  RH  092%=      5-min Rain = 0
KTA1 091422Z 32003KT 00/M01 A3037 RMK A01 T00041008  RH  092%=      5-min Rain = 0
KTA1 091423Z 33003KT 00/M01 A3037 RMK A01 T00041008  RH  091%=      5-min Rain = 0
KTA1 091424Z 33003KT 00/M01 A3037 RMK A01 T00041008  RH  091%=      5-min Rain = 0
KTA1 091425Z 34002KT 01/M01 A3037 RMK A01 T00051008  RH  091%=      5-min Rain = 0
KTA1 091426Z 33003KT 01/M01 A3037 RMK A01 T00051007  RH  091%=      5-min Rain = 0
KTA1 091427Z 33003KT 01/M01 A3037 RMK A01 T00061007  RH  091%=      5-min Rain = 0
KTA1 091428Z 33003KT 01/M01 A3037 RMK A01 T00061007  RH  091%=      5-min Rain = 0
KTA1 091429Z 34003KT 01/M01 A3037 RMK A01 T00061008  RH  090%=      5-min Rain = 0
KTA1 091430Z 34004KT 01/M01 A3037 RMK A01 T00061007  RH  091%=      5-min Rain = 0
KTA1 091431Z 34004KT 01/M01 A3037 RMK A01 T00061008  RH  090%=      5-min Rain = 0
KTA1 091432Z 33003KT 01/M01 A3037 RMK A01 T00061008  RH  090%=      5-min Rain = 0
KTA1 091433Z 34004KT 01/M01 A3037 RMK A01 T00071008  RH  090%=      5-min Rain = 0
KTA1 091434Z 34004KT 01/M01 A3037 RMK A01 T00071009  RH  090%=      5-min Rain = 0
KTA1 091435Z 34003KT 01/M01 A3037 RMK A01 T00061010  RH  089%=      5-min Rain = 0
KTA1 091436Z 33004KT 01/M01 A3038 RMK A01 T00071009  RH  089%=      5-min Rain = 0
KTA1 091437Z 33004KT 01/M01 A3038 RMK A01 T00071009  RH  089%=      5-min Rain = 0
KTA1 091438Z 34004KT 01/M01 A3038 RMK A01 T00071010  RH  089%=      5-min Rain = 0
KTA1 091439Z 33003KT 01/M01 A3038 RMK A01 T00071009  RH  089%=      5-min Rain = 0
KTA1 091440Z 35003KT 01/M01 A3038 RMK A01 T00081009  RH  089%=      5-min Rain = 0
KTA1 091441Z 35003KT 01/M01 A3038 RMK A01 T00081008  RH  089%=      5-min Rain = 0
KTA1 091442Z 33004KT 01/M01 A3038 RMK A01 T00091008  RH  089%=      5-min Rain = 0
KTA1 091443Z 34004KT 01/M01 A3038 RMK A01 T00091008  RH  089%=      5-min Rain = 0
KTA1 091444Z 34004KT 01/M01 A3038 RMK A01 T00091008  RH  089%=      5-min Rain = 0
KTA1 091445Z 35003KT 01/M01 A3038 RMK A01 T00091008  RH  089%=      5-min Rain = 0
KTA1 091446Z 01003KT 01/M01 A3038 RMK A01 T00091009  RH  088%=      5-min Rain = 0
KTA1 091447Z 35003KT 01/M01 A3038 RMK A01 T00091010  RH  087%=      5-min Rain = 0
KTA1 091448Z 35004KT 01/M01 A3038 RMK A01 T00091010  RH  087%=      5-min Rain = 0
KTA1 091449Z 35004KT 01/M01 A3038 RMK A01 T00091010  RH  087%=      5-min Rain = 0
KTA1 091450Z 34003KT 01/M01 A3038 RMK A01 T00091010  RH  087%=      5-min Rain = 0
KTA1 091451Z 34004KT 01/M01 A3038 RMK A01 T00091009  RH  088%=      5-min Rain = 0
KTA1 091452Z 35003KT 01/M01 A3038 RMK A01 T00091009  RH  088%=      5-min Rain = 0
KTA1 091453Z 35003KT 01/M01 A3038 RMK A01 T00091009  RH  088%=      5-min Rain = 0
KTA1 091454Z 34003KT 01/M01 A3038 RMK A01 T00091009  RH  088%=      5-min Rain = 0
KTA1 091455Z 35004KT 01/M01 A3038 RMK A01 T00091010  RH  087%=      5-min Rain = 0
KTA1 091456Z 34004KT 01/M01 A3039 RMK A01 T00091010  RH  087%=      5-min Rain = 0
KTA1 091457Z 35003KT 01/M01 A3039 RMK A01 T00101009  RH  087%=      5-min Rain = 0
KTA1 091458Z 35004KT 01/M01 A3039 RMK A01 T00101012  RH  086%=      5-min Rain = 0
KTA1 091459Z 35004KT 01/M01 A3039 RMK A01 T00101014  RH  085%=      5-min Rain = 0
KTA1 091500Z 00003KT 01/M01 A3039 RMK A01 T00101014  RH  084%=      5-min Rain = 0
KTA1 091501Z 35003KT 01/M01 A3039 RMK A01 T00101014  RH  084%=      5-min Rain = 0
KTA1 091502Z 35004KT 01/M01 A3039 RMK A01 T00101013  RH  085%=      5-min Rain = 0
KTA1 091503Z 35004KT 01/M01 A3039 RMK A01 T00101012  RH  085%=      5-min Rain = 0
KTA1 091504Z 35004KT 01/M01 A3039 RMK A01 T00101010  RH  086%=      5-min Rain = 0
KTA1 091505Z 35003KT 01/M01 A3039 RMK A01 T00111008  RH  087%=      5-min Rain = 0
KTA1 091506Z 35003KT 01/M01 A3039 RMK A01 T00121006  RH  088%=      5-min Rain = 0
KTA1 091507Z 35003KT 01/M01 A3039 RMK A01 T00121006  RH  088%=      5-min Rain = 0
KTA1 091508Z 35003KT 01/M01 A3039 RMK A01 T00131005  RH  088%=      5-min Rain = 0
KTA1 091509Z 00005KT 01/M01 A3039 RMK A01 T00131006  RH  088%=      5-min Rain = 0
KTA1 091510Z 00005KT 01/M01 A3039 RMK A01 T00121009  RH  086%=      5-min Rain = 0
KTA1 091511Z 36005KT 01/M01 A3039 RMK A01 T00111010  RH  085%=      5-min Rain = 0
KTA1 091512Z 35005KT 01/M01 A3039 RMK A01 T00111011  RH  085%=      5-min Rain = 0
KTA1 091513Z 36005KT 01/M01 A3039 RMK A01 T00111011  RH  085%=      5-min Rain = 0
KTA1 091514Z 00005KT 01/M01 A3039 RMK A01 T00121010  RH  085%=      5-min Rain = 0
KTA1 091515Z 01005KT 01/M01 A3039 RMK A01 T00131010  RH  085%=      5-min Rain = 0
KTA1 091516Z 01005KT 01/M01 A3039 RMK A01 T00131012  RH  083%=      5-min Rain = 0
KTA1 091517Z 01004KT 01/M01 A3039 RMK A01 T00131013  RH  083%=      5-min Rain = 0
KTA1 091518Z 01004KT 01/M01 A3039 RMK A01 T00141011  RH  083%=      5-min Rain = 0
KTA1 091519Z 01004KT 02/M01 A3039 RMK A01 T00151009  RH  084%=      5-min Rain = 0
KTA1 091520Z 01005KT 02/M01 A3039 RMK A01 T00161009  RH  084%=      5-min Rain = 0
KTA1 091521Z 00005KT 02/M01 A3039 RMK A01 T00151012  RH  082%=      5-min Rain = 0
KTA1 091522Z 00005KT 01/M01 A3039 RMK A01 T00141014  RH  082%=      5-min Rain = 0
KTA1 091523Z 00004KT 01/M01 A3039 RMK A01 T00141012  RH  083%=      5-min Rain = 0
KTA1 091524Z 36004KT 02/M01 A3039 RMK A01 T00151010  RH  083%=      5-min Rain = 0
KTA1 091525Z 00004KT 02/M01 A3039 RMK A01 T00151011  RH  083%=      5-min Rain = 0
KTA1 091526Z 36004KT 02/M01 A3039 RMK A01 T00151011  RH  083%=      5-min Rain = 0
KTA1 091527Z 00005KT 02/M01 A3039 RMK A01 T00161009  RH  084%=      5-min Rain = 0
KTA1 091528Z 02005KT 02/M01 A3039 RMK A01 T00161010  RH  083%=      5-min Rain = 0
KTA1 091529Z 01004KT 02/M01 A3039 RMK A01 T00161012  RH  081%=      5-min Rain = 0
KTA1 091530Z 02004KT 02/M01 A3039 RMK A01 T00161014  RH  081%=      5-min Rain = 0
KTA1 091531Z 01004KT 02/M01 A3039 RMK A01 T00161013  RH  081%=      5-min Rain = 0
KTA1 091532Z 00004KT 02/M01 A304 RMK A01 T00171011  RH  082%=      5-min Rain = 0
KTA1 091533Z 01003KT 02/M01 A304 RMK A01 T00171013  RH  081%=      5-min Rain = 0
KTA1 091534Z 00003KT 02/M01 A304 RMK A01 T00171011  RH  081%=      5-min Rain = 0
KTA1 091535Z 00003KT 02/M01 A304 RMK A01 T00181011  RH  081%=      5-min Rain = 0
KTA1 091536Z 36004KT 02/M01 A304 RMK A01 T00181011  RH  081%=      5-min Rain = 0
KTA1 091537Z 00004KT 02/M01 A304 RMK A01 T00191012  RH  080%=      5-min Rain = 0
KTA1 091538Z 01004KT 02/M01 A304 RMK A01 T00181013  RH  080%=      5-min Rain = 0
KTA1 091539Z 01004KT 02/M01 A304 RMK A01 T00181013  RH  080%=      5-min Rain = 0
KTA1 091540Z 35004KT 02/M01 A304 RMK A01 T00171014  RH  080%=      5-min Rain = 0
KTA1 091541Z 35004KT 02/M01 A304 RMK A01 T00171012  RH  081%=      5-min Rain = 0
KTA1 091542Z 00003KT 02/M01 A304 RMK A01 T00171014  RH  080%=      5-min Rain = 0
KTA1 091543Z 35004KT 02/M01 A304 RMK A01 T00171014  RH  080%=      5-min Rain = 0
KTA1 091544Z 35004KT 02/M01 A3041 RMK A01 T00171012  RH  081%=      5-min Rain = 0
KTA1 091545Z 35003KT 02/M01 A3041 RMK A01 T00181012  RH  081%=      5-min Rain = 0
KTA1 091546Z 35004KT 02/M01 A3041 RMK A01 T00181012  RH  080%=      5-min Rain = 0
KTA1 091547Z 01004KT 02/M01 A3041 RMK A01 T00181014  RH  079%=      5-min Rain = 0
KTA1 091548Z 01003KT 02/M01 A3041 RMK A01 T00181014  RH  079%=      5-min Rain = 0
KTA1 091549Z 02002KT 02/M01 A3041 RMK A01 T00181014  RH  079%=      5-min Rain = 0
KTA1 091550Z 01002KT 02/M01 A3041 RMK A01 T00181014  RH  079%=      5-min Rain = 0
KTA1 091551Z 01003KT 02/M01 A3041 RMK A01 T00191012  RH  080%=      5-min Rain = 0
KTA1 091552Z 35003KT 02/M01 A3041 RMK A01 T00191012  RH  080%=      5-min Rain = 0
KTA1 091553Z 01002KT 02/M01 A3041 RMK A01 T00191012  RH  079%=      5-min Rain = 0
KTA1 091554Z 01003KT 02/M01 A3041 RMK A01 T00211008  RH  081%=      5-min Rain = 0
KTA1 091555Z 02003KT 02/M01 A3041 RMK A01 T00221011  RH  079%=      5-min Rain = 0
KTA1 091556Z 01003KT 02/M01 A3041 RMK A01 T00211014  RH  078%=      5-min Rain = 0
KTA1 091557Z 02003KT 02/M01 A3041 RMK A01 T00211011  RH  079%=      5-min Rain = 0
KTA1 091558Z 01004KT 02/M01 A3041 RMK A01 T00221010  RH  080%=      5-min Rain = 0
KTA1 091559Z 35003KT 02/M01 A3041 RMK A01 T00221011  RH  079%=      5-min Rain = 0
KTA1 091600Z 02004KT 02/M01 A3041 RMK A01 T00231011  RH  079%=      5-min Rain = 0
KTA1 091601Z 04002KT 02/M01 A3041 RMK A01 T00231013  RH  077%=      5-min Rain = 0
KTA1 091602Z 04001KT 02/M01 A3041 RMK A01 T00231013  RH  077%=      5-min Rain = 0
KTA1 091603Z 02002KT 02/M01 A3041 RMK A01 T00241011  RH  077%=      5-min Rain = 0
KTA1 091604Z 02002KT 02/M01 A3041 RMK A01 T00241012  RH  077%=      5-min Rain = 0
KTA1 091605Z 01003KT 02/M01 A3041 RMK A01 T00241013  RH  076%=      5-min Rain = 0
KTA1 091606Z 01003KT 03/M01 A3041 RMK A01 T00251013  RH  076%=      5-min Rain = 0
KTA1 091607Z 03002KT 02/M01 A3041 RMK A01 T00241011  RH  077%=      5-min Rain = 0
KTA1 091608Z 03002KT 02/M01 A3041 RMK A01 T00241012  RH  077%=      5-min Rain = 0
KTA1 091609Z 01003KT 03/M01 A3041 RMK A01 T00251013  RH  076%=      5-min Rain = 0
KTA1 091610Z 02004KT 03/M01 A3041 RMK A01 T00251013  RH  076%=      5-min Rain = 0
KTA1 091611Z 00003KT 03/M01 A3041 RMK A01 T00251014  RH  075%=      5-min Rain = 0
KTA1 091612Z 02003KT 02/M01 A3041 RMK A01 T00241012  RH  077%=      5-min Rain = 0
KTA1 091613Z 02003KT 03/M01 A3041 RMK A01 T00261010  RH  078%=      5-min Rain = 0
KTA1 091614Z 02002KT 03/M01 A3041 RMK A01 T00251012  RH  076%=      5-min Rain = 0
KTA1 091615Z 03003KT 03/M01 A3041 RMK A01 T00251012  RH  076%=      5-min Rain = 0
KTA1 091616Z 03003KT 03/M01 A3041 RMK A01 T00251012  RH  076%=      5-min Rain = 0
KTA1 091617Z 02004KT 03/M01 A3041 RMK A01 T00261013  RH  075%=      5-min Rain = 0
KTA1 091618Z 02004KT 03/M01 A3041 RMK A01 T00261013  RH  075%=      5-min Rain = 0
KTA1 091619Z 02004KT 03/M01 A3041 RMK A01 T00271013  RH  075%=      5-min Rain = 0
KTA1 091620Z 03005KT 03/M02 A3041 RMK A01 T00271015  RH  074%=      5-min Rain = 0
KTA1 091621Z 04005KT 03/M01 A3041 RMK A01 T00281012  RH  075%=      5-min Rain = 0
KTA1 091622Z 05004KT 03/M01 A3041 RMK A01 T00281012  RH  075%=      5-min Rain = 0
KTA1 091623Z 05003KT 03/M01 A3041 RMK A01 T00281014  RH  073%=      5-min Rain = 0
KTA1 091624Z 04002KT 03/M01 A3041 RMK A01 T00281013  RH  074%=      5-min Rain = 0
KTA1 091625Z 04002KT 03/M01 A3041 RMK A01 T00291012  RH  074%=      5-min Rain = 0
KTA1 091626Z 00003KT 03/M01 A3041 RMK A01 T00301010  RH  075%=      5-min Rain = 0
KTA1 091627Z 04004KT 03/M01 A3041 RMK A01 T00311008  RH  075%=      5-min Rain = 0
KTA1 091628Z 02004KT 03/M01 A3041 RMK A01 T00321009  RH  074%=      5-min Rain = 0
KTA1 091629Z 02003KT 03/M01 A3041 RMK A01 T00321013  RH  073%=      5-min Rain = 0
KTA1 091630Z 04003KT 03/M01 A3041 RMK A01 T00321013  RH  073%=      5-min Rain = 0
KTA1 091631Z 04004KT 03/M01 A3041 RMK A01 T00321012  RH  073%=      5-min Rain = 0
KTA1 091632Z 04003KT 03/M02 A3041 RMK A01 T00311016  RH  071%=      5-min Rain = 0
KTA1 091633Z 02004KT 03/M01 A3041 RMK A01 T00311013  RH  072%=      5-min Rain = 0
KTA1 091634Z 03004KT 03/M02 A3041 RMK A01 T00311015  RH  072%=      5-min Rain = 0
KTA1 091635Z 01004KT 03/M01 A3041 RMK A01 T00321011  RH  073%=      5-min Rain = 0
KTA1 091636Z 04003KT 03/M01 A3041 RMK A01 T00331010  RH  074%=      5-min Rain = 0
KTA1 091637Z 04003KT 04/M01 A3041 RMK A01 T00351007  RH  074%=      5-min Rain = 0
KTA1 091638Z 02003KT 04/M01 A3041 RMK A01 T00361010  RH  072%=      5-min Rain = 0
KTA1 091639Z 03004KT 04/M01 A3041 RMK A01 T00361010  RH  072%=      5-min Rain = 0
KTA1 091640Z 04004KT 04/M01 A3041 RMK A01 T00361012  RH  071%=      5-min Rain = 0
KTA1 091641Z 02003KT 04/M01 A3041 RMK A01 T00351014  RH  070%=      5-min Rain = 0
KTA1 091642Z 02004KT 04/M02 A3041 RMK A01 T00351015  RH  070%=      5-min Rain = 0
KTA1 091643Z 03004KT 03/M02 A3041 RMK A01 T00341015  RH  070%=      5-min Rain = 0
KTA1 091644Z 03003KT 03/M02 A3041 RMK A01 T00341016  RH  070%=      5-min Rain = 0
KTA1 091645Z 04004KT 03/M01 A3041 RMK A01 T00341014  RH  071%=      5-min Rain = 0
KTA1 091646Z 02004KT 04/M01 A3041 RMK A01 T00361010  RH  072%=      5-min Rain = 0
KTA1 091647Z 02003KT 04/M01 A3041 RMK A01 T00361012  RH  070%=      5-min Rain = 0
KTA1 091648Z 03004KT 04/M01 A3041 RMK A01 T00371010  RH  071%=      5-min Rain = 0
KTA1 091649Z 02005KT 04/M01 A3041 RMK A01 T00371010  RH  071%=      5-min Rain = 0
KTA1 091650Z 02004KT 04/M01 A3041 RMK A01 T00381013  RH  070%=      5-min Rain = 0
KTA1 091651Z 01004KT 04/M01 A3041 RMK A01 T00371013  RH  070%=      5-min Rain = 0
KTA1 091652Z 03003KT 04/M01 A3041 RMK A01 T00371012  RH  070%=      5-min Rain = 0
KTA1 091653Z 02005KT 04/M01 A3041 RMK A01 T00391007  RH  072%=      5-min Rain = 0
KTA1 091654Z 04005KT 04/M01 A3041 RMK A01 T00391011  RH  070%=      5-min Rain = 0
KTA1 091655Z 04006KT 04/M01 A3041 RMK A01 T00401009  RH  071%=      5-min Rain = 0
KTA1 091656Z 04005KT 04/M01 A3041 RMK A01 T00401008  RH  070%=      5-min Rain = 0
KTA1 091657Z 05004KT 04/M01 A3041 RMK A01 T00391014  RH  068%=      5-min Rain = 0
KTA1 091658Z 03005KT 04/M01 A3041 RMK A01 T00391014  RH  069%=      5-min Rain = 0
KTA1 091659Z 03004KT 04/M02 A3041 RMK A01 T00391015  RH  068%=      5-min Rain = 0
KTA1 091700Z 04005KT 04/M01 A3041 RMK A01 T00381014  RH  069%=      5-min Rain = 0
KTA1 091701Z 03004KT 04/M01 A3041 RMK A01 T00391014  RH  068%=      5-min Rain = 0
KTA1 091702Z 04004KT 04/M01 A3041 RMK A01 T00391014  RH  069%=      5-min Rain = 0
KTA1 091703Z 03005KT 04/M01 A3041 RMK A01 T00401008  RH  071%=      5-min Rain = 0
KTA1 091704Z 03004KT 04/M01 A3041 RMK A01 T00411009  RH  070%=      5-min Rain = 0
KTA1 091705Z 04005KT 04/M01 A3041 RMK A01 T00411011  RH  069%=      5-min Rain = 0
KTA1 091706Z 05003KT 04/M01 A3041 RMK A01 T00401010  RH  070%=      5-min Rain = 0
KTA1 091707Z 08002KT 04/M01 A3041 RMK A01 T00411012  RH  068%=      5-min Rain = 0
KTA1 091708Z 05004KT 04/M01 A3041 RMK A01 T00411012  RH  068%=      5-min Rain = 0
KTA1 091709Z 04004KT 04/M01 A3041 RMK A01 T00431008  RH  069%=      5-min Rain = 0
KTA1 091710Z 03003KT 04/M01 A3041 RMK A01 T00431012  RH  067%=      5-min Rain = 0
KTA1 091711Z 02003KT 04/M01 A3041 RMK A01 T00431009  RH  069%=      5-min Rain = 0
KTA1 091712Z 03001KT 04/M01 A3041 RMK A01 T00431009  RH  069%=      5-min Rain = 0
KTA1 091713Z 05001KT 04/M01 A3041 RMK A01 T00431007  RH  070%=      5-min Rain = 0
KTA1 091714Z 06002KT 04/M01 A3041 RMK A01 T00441009  RH  068%=      5-min Rain = 0
KTA1 091715Z 06003KT 04/M01 A3041 RMK A01 T00441013  RH  066%=      5-min Rain = 0
KTA1 091716Z 05002KT 04/M02 A3041 RMK A01 T00421017  RH  065%=      5-min Rain = 0
KTA1 091717Z 04003KT 04/M02 A3041 RMK A01 T00421016  RH  066%=      5-min Rain = 0
KTA1 091718Z 03003KT 04/M01 A3041 RMK A01 T00421014  RH  067%=      5-min Rain = 0
KTA1 091719Z 03003KT 04/M01 A304 RMK A01 T00431014  RH  067%=      5-min Rain = 0
KTA1 091720Z 03003KT 04/M01 A3041 RMK A01 T00431014  RH  066%=      5-min Rain = 0
KTA1 091721Z 05002KT 04/M02 A3041 RMK A01 T00431015  RH  066%=      5-min Rain = 0
KTA1 091722Z 04001KT 04/M01 A3041 RMK A01 T00431012  RH  067%=      5-min Rain = 0
KTA1 091723Z 03001KT 04/M01 A3041 RMK A01 T00441011  RH  067%=      5-min Rain = 0
KTA1 091724Z 03003KT 05/M01 A304 RMK A01 T00461008  RH  068%=      5-min Rain = 0
KTA1 091725Z 02002KT 05/M01 A304 RMK A01 T00471006  RH  069%=      5-min Rain = 0
KTA1 091726Z 01003KT 05/M01 A304 RMK A01 T00471005  RH  069%=      5-min Rain = 0
KTA1 091727Z 02002KT 05/M01 A304 RMK A01 T00471005  RH  069%=      5-min Rain = 0
KTA1 091728Z 02003KT 05/M01 A304 RMK A01 T00471007  RH  068%=      5-min Rain = 0
KTA1 091729Z 01003KT 05/M01 A3041 RMK A01 T00471009  RH  067%=      5-min Rain = 0
KTA1 091730Z 06002KT 05/M01 A3041 RMK A01 T00471008  RH  068%=      5-min Rain = 0
KTA1 091731Z 00003KT 05/M01 A304 RMK A01 T00471008  RH  068%=      5-min Rain = 0
KTA1 091732Z 35003KT 05/M01 A304 RMK A01 T00481011  RH  066%=      5-min Rain = 0
KTA1 091733Z 35002KT 05/M02 A304 RMK A01 T00471015  RH  064%=      5-min Rain = 0
KTA1 091734Z 00002KT 05/M01 A304 RMK A01 T00471014  RH  065%=      5-min Rain = 0
KTA1 091735Z 35003KT 05/M02 A304 RMK A01 T00471015  RH  064%=      5-min Rain = 0
KTA1 091736Z 35003KT 05/M02 A304 RMK A01 T00471017  RH  063%=      5-min Rain = 0
KTA1 091737Z 35003KT 05/M02 A304 RMK A01 T00481017  RH  063%=      5-min Rain = 0
KTA1 091738Z 36004KT 05/M02 A304 RMK A01 T00491017  RH  062%=      5-min Rain = 0
KTA1 091739Z 00003KT 05/M02 A304 RMK A01 T00491022  RH  060%=      5-min Rain = 0
KTA1 091740Z 35003KT 05/M03 A304 RMK A01 T00481026  RH  059%=      5-min Rain = 0
KTA1 091741Z 35004KT 05/M02 A304 RMK A01 T00481016  RH  063%=      5-min Rain = 0
KTA1 091742Z 35003KT 05/M02 A304 RMK A01 T00491016  RH  063%=      5-min Rain = 0
KTA1 091743Z 35002KT 05/M02 A304 RMK A01 T00481022  RH  060%=      5-min Rain = 0
KTA1 091744Z 33002KT 05/M02 A304 RMK A01 T00471021  RH  061%=      5-min Rain = 0
KTA1 091745Z 32002KT 05/M02 A304 RMK A01 T00471021  RH  061%=      5-min Rain = 0
KTA1 091746Z 31002KT 05/M02 A304 RMK A01 T00471021  RH  061%=      5-min Rain = 0
KTA1 091747Z 33002KT 05/M02 A304 RMK A01 T00471022  RH  061%=      5-min Rain = 0
KTA1 091748Z 33001KT 05/M02 A304 RMK A01 T00481020  RH  062%=      5-min Rain = 0
KTA1 091749Z 33002KT 05/M02 A304 RMK A01 T00491016  RH  063%=      5-min Rain = 0
KTA1 091750Z 32002KT 05/M02 A304 RMK A01 T00501018  RH  062%=      5-min Rain = 0
KTA1 091751Z 00003KT 05/M02 A304 RMK A01 T00501018  RH  061%=      5-min Rain = 0
KTA1 091752Z 36004KT 05/M02 A3039 RMK A01 T00501016  RH  063%=      5-min Rain = 0
KTA1 091753Z 00003KT 05/M01 A3039 RMK A01 T00501009  RH  065%=      5-min Rain = 0
KTA1 091754Z 36003KT 05/M01 A3039 RMK A01 T00511013  RH  063%=      5-min Rain = 0
KTA1 091755Z 34001KT 05/M01 A3039 RMK A01 T00521013  RH  063%=      5-min Rain = 0
KTA1 091756Z 32004KT 05/M01 A3039 RMK A01 T00531012  RH  063%=      5-min Rain = 0
KTA1 091757Z 34003KT 05/M01 A3039 RMK A01 T00531009  RH  064%=      5-min Rain = 0
KTA1 091758Z 32002KT 05/M01 A3039 RMK A01 T00541011  RH  063%=      5-min Rain = 0
KTA1 091759Z 33002KT 06/M01 A3039 RMK A01 T00551011  RH  063%=      5-min Rain = 0
KTA1 091800Z 01003KT 06/M01 A3039 RMK A01 T00551011  RH  062%=      5-min Rain = 0
KTA1 091801Z 02003KT 06/M01 A3039 RMK A01 T00561012  RH  062%=      5-min Rain = 0
KTA1 091802Z 02003KT 06/M01 A3039 RMK A01 T00551013  RH  061%=      5-min Rain = 0
KTA1 091803Z 01003KT 05/M02 A3039 RMK A01 T00541016  RH  061%=      5-min Rain = 0
KTA1 091804Z 35003KT 05/M02 A3039 RMK A01 T00541016  RH  061%=      5-min Rain = 0
KTA1 091805Z 34001KT 05/M02 A3039 RMK A01 T00531016  RH  061%=      5-min Rain = 0
KTA1 091806Z 34003KT 05/M01 A3039 RMK A01 T00541012  RH  062%=      5-min Rain = 0
KTA1 091807Z 34002KT 06/M01 A3039 RMK A01 T00551011  RH  063%=      5-min Rain = 0
KTA1 091808Z 00002KT 06/M01 A3039 RMK A01 T00561012  RH  062%=      5-min Rain = 0
KTA1 091809Z 00000KT 06/M02 A3039 RMK A01 T00561016  RH  060%=      5-min Rain = 0
KTA1 091810Z 00000KT 06/M02 A3039 RMK A01 T00561018  RH  059%=      5-min Rain = 0
KTA1 091811Z 25000KT 06/M02 A3039 RMK A01 T00561015  RH  060%=      5-min Rain = 0
KTA1 091812Z 05002KT 06/M01 A3039 RMK A01 T00591007  RH  063%=      5-min Rain = 0
KTA1 091813Z 04003KT 06/M01 A3039 RMK A01 T00601007  RH  062%=      5-min Rain = 0
KTA1 091814Z 04002KT 06/M01 A3039 RMK A01 T00601010  RH  061%=      5-min Rain = 0
KTA1 091815Z 05002KT 06/M01 A3039 RMK A01 T00581014  RH  060%=      5-min Rain = 0
KTA1 091816Z 06001KT 06/M01 A3039 RMK A01 T00591010  RH  061%=      5-min Rain = 0
KTA1 091817Z 06000KT 06/M01 A3039 RMK A01 T00601011  RH  060%=      5-min Rain = 0
KTA1 091818Z 36001KT 06/M01 A3039 RMK A01 T00621008  RH  061%=      5-min Rain = 0
KTA1 091819Z 30002KT 06/M00 A3039 RMK A01 T00631003  RH  063%=      5-min Rain = 0
KTA1 091820Z 30002KT 06/M01 A3039 RMK A01 T00631005  RH  062%=      5-min Rain = 0
KTA1 091821Z 30001KT 06/M01 A3039 RMK A01 T00631008  RH  061%=      5-min Rain = 0
KTA1 091822Z 34002KT 06/M01 A3039 RMK A01 T00621007  RH  061%=      5-min Rain = 0
KTA1 091823Z 01002KT 06/M01 A3039 RMK A01 T00621008  RH  061%=      5-min Rain = 0
KTA1 091824Z 03003KT 06/M01 A3039 RMK A01 T00611007  RH  062%=      5-min Rain = 0
KTA1 091825Z 07002KT 06/M01 A3039 RMK A01 T00611008  RH  061%=      5-min Rain = 0
KTA1 091826Z 07002KT 06/M01 A3038 RMK A01 T00601013  RH  060%=      5-min Rain = 0
KTA1 091827Z 06002KT 06/M01 A3038 RMK A01 T00591010  RH  061%=      5-min Rain = 0
KTA1 091828Z 08001KT 06/M01 A3038 RMK A01 T00591008  RH  062%=      5-min Rain = 0
KTA1 091829Z 25001KT 06/00 A3038 RMK A01 T00610000  RH  065%=      5-min Rain = 0
KTA1 091830Z 25000KT 06/M01 A3038 RMK A01 T00621005  RH  062%=      5-min Rain = 0
KTA1 091831Z 27001KT 06/M01 A3038 RMK A01 T00621006  RH  062%=      5-min Rain = 0
KTA1 091832Z 02002KT 06/M01 A3038 RMK A01 T00621007  RH  061%=      5-min Rain = 0
KTA1 091833Z 01004KT 06/M01 A3038 RMK A01 T00621007  RH  061%=      5-min Rain = 0
KTA1 091834Z 02004KT 06/M00 A3038 RMK A01 T00621004  RH  063%=      5-min Rain = 0
KTA1 091835Z 02004KT 06/M01 A3038 RMK A01 T00621008  RH  061%=      5-min Rain = 0
KTA1 091836Z 03003KT 06/M01 A3038 RMK A01 T00611008  RH  061%=      5-min Rain = 0
KTA1 091837Z 35001KT 06/M01 A3038 RMK A01 T00611005  RH  062%=      5-min Rain = 0
KTA1 091838Z 00004KT 06/M00 A3038 RMK A01 T00621004  RH  062%=      5-min Rain = 0
KTA1 091839Z 32004KT 06/M01 A3038 RMK A01 T00621006  RH  062%=      5-min Rain = 0
KTA1 091840Z 32002KT 06/M01 A3037 RMK A01 T00621010  RH  060%=      5-min Rain = 0
KTA1 091841Z 26002KT 06/M01 A3037 RMK A01 T00621013  RH  059%=      5-min Rain = 0
KTA1 091842Z 27003KT 06/M01 A3037 RMK A01 T00611011  RH  060%=      5-min Rain = 0
KTA1 091843Z 36002KT 06/M01 A3037 RMK A01 T00611008  RH  061%=      5-min Rain = 0
KTA1 091844Z 36006KT 06/M00 A3037 RMK A01 T00621004  RH  063%=      5-min Rain = 0
KTA1 091845Z 00005KT 06/M01 A3037 RMK A01 T00621005  RH  062%=      5-min Rain = 0
KTA1 091846Z 35004KT 06/M01 A3037 RMK A01 T00611011  RH  060%=      5-min Rain = 0
KTA1 091847Z 35002KT 06/M01 A3037 RMK A01 T00611009  RH  061%=      5-min Rain = 0
KTA1 091848Z 02001KT 06/M01 A3037 RMK A01 T00611012  RH  060%=      5-min Rain = 0
KTA1 091849Z 03002KT 06/M01 A3037 RMK A01 T00611010  RH  060%=      5-min Rain = 0
KTA1 091850Z 00001KT 06/00 A3037 RMK A01 T006400-0  RH  064%=      5-min Rain = 0
KTA1 091851Z 04002KT 07/00 A3037 RMK A01 T00660001  RH  063%=      5-min Rain = 0
KTA1 091852Z 04004KT 07/M00 A3037 RMK A01 T00661004  RH  061%=      5-min Rain = 0
KTA1 091853Z 03004KT 07/M00 A3037 RMK A01 T00661004  RH  061%=      5-min Rain = 0
KTA1 091854Z 02003KT 07/M01 A3037 RMK A01 T00651010  RH  059%=      5-min Rain = 0
KTA1 091855Z 02003KT 06/M01 A3037 RMK A01 T00641007  RH  060%=      5-min Rain = 0
KTA1 091856Z 33005KT 07/00 A3037 RMK A01 T00660000  RH  063%=      5-min Rain = 0
KTA1 091857Z 32003KT 07/M01 A3036 RMK A01 T00671010  RH  058%=      5-min Rain = 0
KTA1 091858Z 33003KT 07/M01 A3036 RMK A01 T00671005  RH  060%=      5-min Rain = 0
KTA1 091859Z 32003KT 07/M01 A3036 RMK A01 T00671009  RH  058%=      5-min Rain = 0
KTA1 091900Z 01007KT 07/M01 A3036 RMK A01 T00671007  RH  059%=      5-min Rain = 0
KTA1 091901Z 36007KT 07/M00 A3036 RMK A01 T00681003  RH  060%=      5-min Rain = 0
KTA1 091902Z 02007KT 07/M01 A3036 RMK A01 T00671005  RH  060%=      5-min Rain = 0
KTA1 091903Z 01005KT 07/M01 A3036 RMK A01 T00661006  RH  060%=      5-min Rain = 0
KTA1 091904Z 02005KT 07/M00 A3036 RMK A01 T00651003  RH  062%=      5-min Rain = 0
KTA1 091905Z 01005KT 07/M00 A3036 RMK A01 T00661001  RH  062%=      5-min Rain = 0
KTA1 091906Z 35004KT 07/M01 A3036 RMK A01 T00671006  RH  060%=      5-min Rain = 0
KTA1 091907Z 34003KT 07/M01 A3036 RMK A01 T00671009  RH  059%=      5-min Rain = 0
KTA1 091908Z 02003KT 07/M01 A3036 RMK A01 T00661008  RH  059%=      5-min Rain = 0
KTA1 091909Z 03003KT 07/00 A3036 RMK A01 T00670001  RH  063%=      5-min Rain = 0
KTA1 091910Z 35001KT 07/00 A3036 RMK A01 T00680001  RH  062%=      5-min Rain = 0
KTA1 091911Z 03001KT 07/M00 A3036 RMK A01 T00691004  RH  060%=      5-min Rain = 0
KTA1 091912Z 01003KT 07/M00 A3036 RMK A01 T00711001  RH  060%=      5-min Rain = 0
KTA1 091913Z 02003KT 07/M00 A3036 RMK A01 T00711004  RH  059%=      5-min Rain = 0
KTA1 091914Z 01006KT 07/00 A3036 RMK A01 T00710001  RH  061%=      5-min Rain = 0
KTA1 091915Z 03006KT 07/01 A3036 RMK A01 T00710006  RH  063%=      5-min Rain = 0
KTA1 091916Z 02005KT 07/00 A3036 RMK A01 T00710003  RH  062%=      5-min Rain = 0
KTA1 091917Z 02004KT 07/M00 A3036 RMK A01 T00691003  RH  060%=      5-min Rain = 0
KTA1 091918Z 02004KT 07/M00 A3036 RMK A01 T00671003  RH  061%=      5-min Rain = 0
KTA1 091919Z 02005KT 07/M00 A3036 RMK A01 T00671001  RH  062%=      5-min Rain = 0
KTA1 091920Z 01007KT 07/00 A3035 RMK A01 T00680002  RH  063%=      5-min Rain = 0
KTA1 091921Z 35006KT 07/00 A3035 RMK A01 T00690004  RH  063%=      5-min Rain = 0
KTA1 091922Z 01006KT 07/00 A3035 RMK A01 T006900-0  RH  061%=      5-min Rain = 0
KTA1 091923Z 36005KT 07/00 A3035 RMK A01 T00690003  RH  063%=      5-min Rain = 0
KTA1 091924Z 01004KT 07/M00 A3035 RMK A01 T00681002  RH  061%=      5-min Rain = 0
KTA1 091925Z 02004KT 07/00 A3036 RMK A01 T00680001  RH  062%=      5-min Rain = 0
KTA1 091926Z 34004KT 07/M00 A3035 RMK A01 T00681002  RH  061%=      5-min Rain = 0
KTA1 091927Z 35003KT 07/M00 A3035 RMK A01 T00681002  RH  061%=      5-min Rain = 0
KTA1 091928Z 01003KT 07/00 A3035 RMK A01 T00670001  RH  062%=      5-min Rain = 0
KTA1 091929Z 04005KT 07/01 A3035 RMK A01 T00690007  RH  065%=      5-min Rain = 0
KTA1 091930Z 03006KT 07/01 A3035 RMK A01 T00700008  RH  064%=      5-min Rain = 0
KTA1 091931Z 03004KT 07/00 A3035 RMK A01 T00700001  RH  061%=      5-min Rain = 0
KTA1 091932Z 02003KT 07/M00 A3035 RMK A01 T00691003  RH  060%=      5-min Rain = 0
KTA1 091933Z 02007KT 07/00 A3035 RMK A01 T00690004  RH  063%=      5-min Rain = 0
KTA1 091934Z 02006KT 07/01 A3035 RMK A01 T00700007  RH  064%=      5-min Rain = 0
KTA1 091935Z 02005KT 07/00 A3035 RMK A01 T00690003  RH  063%=      5-min Rain = 0
KTA1 091936Z 01006KT 07/01 A3035 RMK A01 T00690005  RH  064%=      5-min Rain = 0
KTA1 091937Z 01004KT 07/M00 A3035 RMK A01 T00691001  RH  061%=      5-min Rain = 0
KTA1 091938Z 03003KT 07/M00 A3035 RMK A01 T00671003  RH  061%=      5-min Rain = 0
KTA1 091939Z 03002KT 07/M00 A3035 RMK A01 T00671002  RH  061%=      5-min Rain = 0
KTA1 091940Z 01006KT 07/00 A3035 RMK A01 T00670002  RH  063%=      5-min Rain = 0
KTA1 091941Z 35005KT 07/01 A3035 RMK A01 T00690008  RH  065%=      5-min Rain = 0
KTA1 091942Z 34004KT 07/01 A3035 RMK A01 T00700007  RH  064%=      5-min Rain = 0
KTA1 091943Z 03004KT 07/01 A3035 RMK A01 T00710007  RH  064%=      5-min Rain = 0
KTA1 091944Z 04005KT 07/00 A3035 RMK A01 T00710003  RH  062%=      5-min Rain = 0
KTA1 091945Z 05005KT 07/00 A3035 RMK A01 T00700002  RH  062%=      5-min Rain = 0
KTA1 091946Z 05003KT 07/M00 A3035 RMK A01 T00691002  RH  061%=      5-min Rain = 0
KTA1 091947Z 08003KT 07/00 A3035 RMK A01 T00690003  RH  063%=      5-min Rain = 0
KTA1 091948Z 09002KT 07/M00 A3035 RMK A01 T00701001  RH  061%=      5-min Rain = 0
KTA1 091949Z 06003KT 07/00 A3035 RMK A01 T00700002  RH  062%=      5-min Rain = 0
KTA1 091950Z 06004KT 07/00 A3035 RMK A01 T00720004  RH  062%=      5-min Rain = 0
KTA1 091951Z 04004KT 07/01 A3035 RMK A01 T00710005  RH  063%=      5-min Rain = 0
KTA1 091952Z 04004KT 07/01 A3035 RMK A01 T00720006  RH  063%=      5-min Rain = 0
KTA1 091953Z 05004KT 07/00 A3035 RMK A01 T00730004  RH  062%=      5-min Rain = 0
KTA1 091954Z 04005KT 07/00 A3035 RMK A01 T00730003  RH  061%=      5-min Rain = 0
KTA1 091955Z 01005KT 07/00 A3035 RMK A01 T00710002  RH  061%=      5-min Rain = 0
KTA1 091956Z 01005KT 07/00 A3035 RMK A01 T00710004  RH  062%=      5-min Rain = 0
KTA1 091957Z 00005KT 07/00 A3035 RMK A01 T00720001  RH  061%=      5-min Rain = 0
KTA1 091958Z 35004KT 07/00 A3035 RMK A01 T00710000  RH  061%=      5-min Rain = 0
KTA1 091959Z 34003KT 07/00 A3035 RMK A01 T00710002  RH  062%=      5-min Rain = 0
KTA1 092000Z 01003KT 07/00 A3035 RMK A01 T00720003  RH  062%=      5-min Rain = 0
KTA1 092001Z 03004KT 07/01 A3035 RMK A01 T00730007  RH  063%=      5-min Rain = 0
KTA1 092002Z 02004KT 07/M00 A3035 RMK A01 T00731001  RH  059%=      5-min Rain = 0
KTA1 092003Z 03003KT 07/M00 A3035 RMK A01 T00721004  RH  059%=      5-min Rain = 0
KTA1 092004Z 03004KT 07/M00 A3035 RMK A01 T00711004  RH  059%=      5-min Rain = 0
KTA1 092005Z 03005KT 07/M01 A3035 RMK A01 T00701006  RH  059%=      5-min Rain = 0
KTA1 092006Z 05002KT 07/M00 A3035 RMK A01 T00691003  RH  060%=      5-min Rain = 0
KTA1 092007Z 06001KT 07/M01 A3034 RMK A01 T00691005  RH  059%=      5-min Rain = 0
KTA1 092008Z 07001KT 07/00 A3034 RMK A01 T00700000  RH  061%=      5-min Rain = 0
KTA1 092009Z 04002KT 07/01 A3034 RMK A01 T00730005  RH  062%=      5-min Rain = 0
KTA1 092010Z 08003KT 07/00 A3034 RMK A01 T00740002  RH  060%=      5-min Rain = 0
KTA1 092011Z 09003KT 07/00 A3034 RMK A01 T00740001  RH  060%=      5-min Rain = 0
KTA1 092012Z 07001KT 07/00 A3034 RMK A01 T00740000  RH  059%=      5-min Rain = 0
KTA1 092013Z 06002KT 07/00 A3034 RMK A01 T00740002  RH  060%=      5-min Rain = 0
KTA1 092014Z 06003KT 07/00 A3034 RMK A01 T00740001  RH  060%=      5-min Rain = 0
KTA1 092015Z 02003KT 08/00 A3034 RMK A01 T00750004  RH  061%=      5-min Rain = 0
KTA1 092016Z 01004KT 08/00 A3034 RMK A01 T007500-0  RH  059%=      5-min Rain = 0
KTA1 092017Z 03004KT 08/01 A3034 RMK A01 T00760007  RH  062%=      5-min Rain = 0
KTA1 092018Z 03004KT 08/01 A3034 RMK A01 T00780008  RH  062%=      5-min Rain = 0
KTA1 092019Z 04005KT 08/00 A3034 RMK A01 T00770003  RH  059%=      5-min Rain = 0
KTA1 092020Z 05005KT 08/00 A3034 RMK A01 T00770002  RH  059%=      5-min Rain = 0
KTA1 092021Z 06002KT 08/M00 A3034 RMK A01 T00751003  RH  058%=      5-min Rain = 0
KTA1 092022Z 05005KT 07/00 A3034 RMK A01 T00740001  RH  060%=      5-min Rain = 0
KTA1 092023Z 04006KT 08/01 A3034 RMK A01 T00750007  RH  062%=      5-min Rain = 0
KTA1 092024Z 04006KT 08/01 A3034 RMK A01 T00760008  RH  062%=      5-min Rain = 0
KTA1 092025Z 04004KT 08/01 A3034 RMK A01 T00770005  RH  060%=      5-min Rain = 0
KTA1 092026Z 06002KT 08/M00 A3034 RMK A01 T00761001  RH  058%=      5-min Rain = 0
KTA1 092027Z 08002KT 08/00 A3034 RMK A01 T00750002  RH  060%=      5-min Rain = 0
KTA1 092028Z 02006KT 08/01 A3034 RMK A01 T00780009  RH  062%=      5-min Rain = 0
KTA1 092029Z 01007KT 08/01 A3034 RMK A01 T00790010  RH  062%=      5-min Rain = 0
KTA1 092030Z 33004KT 08/01 A3034 RMK A01 T00800011  RH  062%=      5-min Rain = 0
KTA1 092031Z 33002KT 08/01 A3034 RMK A01 T00810010  RH  061%=      5-min Rain = 0
KTA1 092032Z 35005KT 08/01 A3034 RMK A01 T00820010  RH  061%=      5-min Rain = 0
KTA1 092033Z 33005KT 08/01 A3034 RMK A01 T00820006  RH  059%=      5-min Rain = 0
KTA1 092034Z 34006KT 08/00 A3034 RMK A01 T00810001  RH  057%=      5-min Rain = 0
KTA1 092035Z 36006KT 08/01 A3034 RMK A01 T00810006  RH  059%=      5-min Rain = 0
KTA1 092036Z 01007KT 08/01 A3034 RMK A01 T00810010  RH  061%=      5-min Rain = 0
KTA1 092037Z 01006KT 08/01 A3034 RMK A01 T00810011  RH  061%=      5-min Rain = 0
KTA1 092038Z 01007KT 08/01 A3034 RMK A01 T00810005  RH  059%=      5-min Rain = 0
KTA1 092039Z 01007KT 08/01 A3034 RMK A01 T00800005  RH  059%=      5-min Rain = 0
KTA1 092040Z 02007KT 08/00 A3034 RMK A01 T00780002  RH  058%=      5-min Rain = 0
KTA1 092041Z 02006KT 08/00 A3034 RMK A01 T00770001  RH  059%=      5-min Rain = 0
KTA1 092042Z 03004KT 08/M00 A3034 RMK A01 T00771002  RH  057%=      5-min Rain = 0
KTA1 092043Z 03003KT 08/M00 A3034 RMK A01 T00761004  RH  057%=      5-min Rain = 0
KTA1 092044Z 03002KT 08/M01 A3034 RMK A01 T00761005  RH  057%=      5-min Rain = 0
KTA1 092045Z 01003KT 08/M00 A3034 RMK A01 T00761001  RH  058%=      5-min Rain = 0
KTA1 092046Z 01004KT 08/M00 A3034 RMK A01 T00771004  RH  057%=      5-min Rain = 0
KTA1 092047Z 00004KT 08/M00 A3034 RMK A01 T00761004  RH  057%=      5-min Rain = 0
KTA1 092048Z 02004KT 08/M00 A3034 RMK A01 T00761003  RH  057%=      5-min Rain = 0
KTA1 092049Z 02002KT 08/M01 A3033 RMK A01 T00761005  RH  057%=      5-min Rain = 0
KTA1 092050Z 01000KT 08/M01 A3033 RMK A01 T00751007  RH  056%=      5-min Rain = 0
KTA1 092051Z 10000KT 08/M00 A3033 RMK A01 T00761001  RH  058%=      5-min Rain = 0
KTA1 092052Z 00000KT 08/M00 A3033 RMK A01 T00791001  RH  057%=      5-min Rain = 0
KTA1 092053Z 00000KT 08/00 A3033 RMK A01 T00830000  RH  056%=      5-min Rain = 0
KTA1 092054Z 32000KT 09/00 A3033 RMK A01 T00860004  RH  056%=      5-min Rain = 0
KTA1 092055Z 35002KT 09/00 A3033 RMK A01 T00870002  RH  055%=      5-min Rain = 0
KTA1 092056Z 34002KT 09/M00 A3033 RMK A01 T00861002  RH  054%=      5-min Rain = 0
KTA1 092057Z 32001KT 09/M00 A3033 RMK A01 T00851002  RH  054%=      5-min Rain = 0
KTA1 092058Z 02000KT 08/00 A3033 RMK A01 T00840004  RH  057%=      5-min Rain = 0
KTA1 092059Z 04001KT 09/00 A3033 RMK A01 T00850003  RH  056%=      5-min Rain = 0
KTA1 092100Z 06001KT 08/00 A3033 RMK A01 T00840002  RH  056%=      5-min Rain = 0
KTA1 092101Z 02003KT 09/01 A3033 RMK A01 T00850005  RH  057%=      5-min Rain = 0
KTA1 092102Z 36004KT 09/01 A3033 RMK A01 T00850005  RH  057%=      5-min Rain = 0
KTA1 092103Z 01003KT 08/M00 A3033 RMK A01 T00821003  RH  055%=      5-min Rain = 0
KTA1 092104Z 01003KT 08/M00 A3033 RMK A01 T00801004  RH  055%=      5-min Rain = 0
KTA1 092105Z 33002KT 08/M00 A3033 RMK A01 T00801003  RH  056%=      5-min Rain = 0
KTA1 092106Z 34001KT 08/M01 A3033 RMK A01 T00801006  RH  055%=      5-min Rain = 0
KTA1 092107Z 29002KT 08/M00 A3033 RMK A01 T00801002  RH  056%=      5-min Rain = 0
KTA1 092108Z 24001KT 08/00 A3033 RMK A01 T00820001  RH  057%=      5-min Rain = 0
KTA1 092109Z 23001KT 08/00 A3033 RMK A01 T00830000  RH  056%=      5-min Rain = 0
KTA1 092110Z 21002KT 09/00 A3033 RMK A01 T00850004  RH  057%=      5-min Rain = 0
KTA1 092111Z 25002KT 09/00 A3033 RMK A01 T008500-0  RH  055%=      5-min Rain = 0
KTA1 092112Z 29002KT 09/00 A3033 RMK A01 T008500-0  RH  055%=      5-min Rain = 0
KTA1 092113Z 31002KT 09/M00 A3033 RMK A01 T00851001  RH  055%=      5-min Rain = 0
KTA1 092114Z 00002KT 09/M00 A3033 RMK A01 T00851001  RH  055%=      5-min Rain = 0
KTA1 092115Z 31002KT 09/M00 A3033 RMK A01 T00851003  RH  054%=      5-min Rain = 0
KTA1 092116Z 32002KT 09/M00 A3033 RMK A01 T00851001  RH  054%=      5-min Rain = 0
KTA1 092117Z 31004KT 09/00 A3033 RMK A01 T00860001  RH  055%=      5-min Rain = 0
KTA1 092118Z 29002KT 09/M00 A3033 RMK A01 T00861001  RH  054%=      5-min Rain = 0
KTA1 092119Z 30002KT 09/M00 A3033 RMK A01 T00861003  RH  053%=      5-min Rain = 0
KTA1 092120Z 30002KT 09/M00 A3033 RMK A01 T00861002  RH  054%=      5-min Rain = 0
KTA1 092121Z 31001KT 09/00 A3033 RMK A01 T00860001  RH  055%=      5-min Rain = 0
KTA1 092122Z 02002KT 09/00 A3033 RMK A01 T00870001  RH  055%=      5-min Rain = 0
KTA1 092123Z 34003KT 09/01 A3033 RMK A01 T00880005  RH  056%=      5-min Rain = 0
KTA1 092124Z 33003KT 09/00 A3033 RMK A01 T00880003  RH  055%=      5-min Rain = 0
KTA1 092125Z 00002KT 09/00 A3033 RMK A01 T00870003  RH  055%=      5-min Rain = 0
KTA1 092126Z 01001KT 09/00 A3033 RMK A01 T00870002  RH  055%=      5-min Rain = 0
KTA1 092127Z 04001KT 09/M00 A3033 RMK A01 T00861003  RH  053%=      5-min Rain = 0
KTA1 092128Z 11000KT 09/M00 A3033 RMK A01 T00871002  RH  054%=      5-min Rain = 0
KTA1 092129Z 20001KT 09/M00 A3033 RMK A01 T00891003  RH  053%=      5-min Rain = 0
KTA1 092130Z 29003KT 09/00 A3033 RMK A01 T00890000  RH  054%=      5-min Rain = 0
KTA1 092131Z 31002KT 09/00 A3033 RMK A01 T00890002  RH  054%=      5-min Rain = 0
KTA1 092132Z 33003KT 09/00 A3033 RMK A01 T00880000  RH  054%=      5-min Rain = 0
KTA1 092133Z 34005KT 09/00 A3033 RMK A01 T00880001  RH  054%=      5-min Rain = 0
KTA1 092134Z 34004KT 09/00 A3033 RMK A01 T00870001  RH  055%=      5-min Rain = 0
KTA1 092135Z 35003KT 09/00 A3033 RMK A01 T00870004  RH  056%=      5-min Rain = 0
KTA1 092136Z 35003KT 09/01 A3033 RMK A01 T00880006  RH  056%=      5-min Rain = 0
KTA1 092137Z 35003KT 09/01 A3033 RMK A01 T00880006  RH  056%=      5-min Rain = 0
KTA1 092138Z 02004KT 09/00 A3033 RMK A01 T00880004  RH  056%=      5-min Rain = 0
KTA1 092139Z 03002KT 09/00 A3033 RMK A01 T00870001  RH  055%=      5-min Rain = 0
KTA1 092140Z 03003KT 09/00 A3033 RMK A01 T00860001  RH  055%=      5-min Rain = 0
KTA1 092141Z 02002KT 09/00 A3033 RMK A01 T008600-0  RH  055%=      5-min Rain = 0
KTA1 092142Z 04002KT 09/00 A3033 RMK A01 T00850001  RH  055%=      5-min Rain = 0
KTA1 092143Z 03003KT 09/00 A3033 RMK A01 T00850004  RH  057%=      5-min Rain = 0
KTA1 092144Z 34004KT 09/01 A3033 RMK A01 T00870007  RH  057%=      5-min Rain = 0
KTA1 092145Z 35005KT 09/01 A3033 RMK A01 T00870005  RH  057%=      5-min Rain = 0
KTA1 092146Z 35005KT 09/01 A3033 RMK A01 T00870006  RH  057%=      5-min Rain = 0
KTA1 092147Z 33005KT 09/01 A3033 RMK A01 T00870007  RH  057%=      5-min Rain = 0
KTA1 092148Z 33006KT 09/01 A3033 RMK A01 T00880006  RH  056%=      5-min Rain = 0
KTA1 092149Z 34007KT 09/00 A3033 RMK A01 T00880003  RH  055%=      5-min Rain = 0
KTA1 092150Z 33006KT 09/00 A3033 RMK A01 T00870002  RH  055%=      5-min Rain = 0
KTA1 092151Z 33005KT 09/00 A3033 RMK A01 T00860001  RH  055%=      5-min Rain = 0
KTA1 092152Z 33004KT 09/00 A3033 RMK A01 T00850000  RH  055%=      5-min Rain = 0
KTA1 092153Z 34004KT 09/00 A3033 RMK A01 T00860001  RH  055%=      5-min Rain = 0
KTA1 092154Z 34004KT 09/00 A3033 RMK A01 T00850001  RH  055%=      5-min Rain = 0
KTA1 092155Z 35003KT 09/00 A3033 RMK A01 T00860001  RH  055%=      5-min Rain = 0
KTA1 092156Z 32002KT 09/00 A3033 RMK A01 T00860003  RH  056%=      5-min Rain = 0
KTA1 092157Z 31003KT 09/00 A3033 RMK A01 T00860001  RH  055%=      5-min Rain = 0
KTA1 092158Z 33001KT 09/00 A3033 RMK A01 T00870001  RH  055%=      5-min Rain = 0
KTA1 092159Z 34003KT 09/00 A3033 RMK A01 T00870001  RH  055%=      5-min Rain = 0
KTA1 092200Z 32003KT 09/00 A3033 RMK A01 T00880002  RH  055%=      5-min Rain = 0
KTA1 092201Z 35004KT 09/00 A3033 RMK A01 T00880002  RH  055%=      5-min Rain = 0
KTA1 092202Z 35005KT 09/00 A3033 RMK A01 T00880004  RH  056%=      5-min Rain = 0
KTA1 092203Z 35005KT 09/01 A3033 RMK A01 T00870006  RH  057%=      5-min Rain = 0
KTA1 092204Z 35004KT 09/00 A3033 RMK A01 T00860001  RH  055%=      5-min Rain = 0
KTA1 092205Z 34003KT 09/00 A3033 RMK A01 T00850000  RH  055%=      5-min Rain = 0
KTA1 092206Z 35004KT 09/00 A3033 RMK A01 T00850003  RH  056%=      5-min Rain = 0
KTA1 092207Z 00004KT 09/01 A3033 RMK A01 T00860007  RH  058%=      5-min Rain = 0
KTA1 092208Z 01005KT 09/01 A3033 RMK A01 T00860010  RH  058%=      5-min Rain = 0
KTA1 092209Z 35006KT 09/01 A3033 RMK A01 T00870013  RH  060%=      5-min Rain = 0
KTA1 092210Z 35005KT 09/01 A3033 RMK A01 T00870008  RH  057%=      5-min Rain = 0
KTA1 092211Z 36005KT 09/01 A3033 RMK A01 T00870006  RH  057%=      5-min Rain = 0
KTA1 092212Z 00004KT 09/01 A3033 RMK A01 T00860006  RH  057%=      5-min Rain = 0
KTA1 092213Z 36002KT 09/00 A3033 RMK A01 T00850002  RH  056%=      5-min Rain = 0
KTA1 092214Z 00000KT 09/M00 A3033 RMK A01 T00851001  RH  055%=      5-min Rain = 0
KTA1 092215Z 35001KT 09/00 A3033 RMK A01 T00870002  RH  055%=      5-min Rain = 0
KTA1 092216Z 01006KT 09/01 A3033 RMK A01 T00880006  RH  056%=      5-min Rain = 0
KTA1 092217Z 35006KT 09/01 A3033 RMK A01 T00880008  RH  057%=      5-min Rain = 0
KTA1 092218Z 35006KT 09/01 A3033 RMK A01 T00870006  RH  057%=      5-min Rain = 0
KTA1 092219Z 36006KT 09/01 A3033 RMK A01 T00860005  RH  057%=      5-min Rain = 0
KTA1 092220Z 35005KT 09/01 A3033 RMK A01 T00860005  RH  057%=      5-min Rain = 0
KTA1 092221Z 35006KT 09/00 A3033 RMK A01 T00850003  RH  056%=      5-min Rain = 0
KTA1 092222Z 36005KT 09/01 A3033 RMK A01 T00850005  RH  057%=      5-min Rain = 0
KTA1 092223Z 00005KT 09/00 A3033 RMK A01 T00850003  RH  057%=      5-min Rain = 0
KTA1 092224Z 01005KT 08/01 A3033 RMK A01 T00840005  RH  057%=      5-min Rain = 0
KTA1 092225Z 02004KT 08/01 A3033 RMK A01 T00840005  RH  058%=      5-min Rain = 0
KTA1 092226Z 02003KT 08/00 A3033 RMK A01 T00840004  RH  057%=      5-min Rain = 0
KTA1 092227Z 01003KT 08/00 A3033 RMK A01 T00840003  RH  057%=      5-min Rain = 0
KTA1 092228Z 02003KT 08/00 A3033 RMK A01 T00840002  RH  056%=      5-min Rain = 0
KTA1 092229Z 03003KT 08/00 A3033 RMK A01 T00840003  RH  057%=      5-min Rain = 0
KTA1 092230Z 02003KT 08/00 A3033 RMK A01 T00840004  RH  057%=      5-min Rain = 0
KTA1 092231Z 01002KT 08/00 A3033 RMK A01 T00840002  RH  056%=      5-min Rain = 0
KTA1 092232Z 01002KT 08/00 A3033 RMK A01 T00840001  RH  056%=      5-min Rain = 0
KTA1 092233Z 01001KT 08/M00 A3033 RMK A01 T00841001  RH  055%=      5-min Rain = 0
KTA1 092234Z 01000KT 08/00 A3033 RMK A01 T008300-0  RH  056%=      5-min Rain = 0
KTA1 092235Z 01000KT 08/00 A3033 RMK A01 T00830000  RH  056%=      5-min Rain = 0
KTA1 092236Z 01000KT 08/00 A3033 RMK A01 T00840001  RH  056%=      5-min Rain = 0
KTA1 092237Z 04001KT 08/00 A3033 RMK A01 T00840003  RH  056%=      5-min Rain = 0
KTA1 092238Z 03002KT 09/00 A3033 RMK A01 T00850003  RH  057%=      5-min Rain = 0
KTA1 092239Z 00001KT 09/00 A3033 RMK A01 T00850002  RH  056%=      5-min Rain = 0
KTA1 092240Z 33002KT 09/00 A3033 RMK A01 T00850002  RH  056%=      5-min Rain = 0
KTA1 092241Z 34002KT 09/00 A3034 RMK A01 T00850004  RH  057%=      5-min Rain = 0
KTA1 092242Z 00001KT 09/00 A3034 RMK A01 T00850002  RH  056%=      5-min Rain = 0
KTA1 092243Z 03001KT 09/00 A3034 RMK A01 T00850004  RH  057%=      5-min Rain = 0
KTA1 092244Z 00001KT 09/01 A3034 RMK A01 T00850007  RH  058%=      5-min Rain = 0
KTA1 092245Z 36003KT 09/01 A3034 RMK A01 T00850007  RH  058%=      5-min Rain = 0
KTA1 092246Z 02004KT 09/01 A3034 RMK A01 T00860010  RH  059%=      5-min Rain = 0
KTA1 092247Z 02003KT 09/01 A3034 RMK A01 T00860013  RH  060%=      5-min Rain = 0
KTA1 092248Z 01005KT 09/01 A3034 RMK A01 T00850014  RH  061%=      5-min Rain = 0
KTA1 092249Z 36005KT 09/02 A3034 RMK A01 T00850015  RH  061%=      5-min Rain = 0
KTA1 092250Z 33004KT 09/01 A3034 RMK A01 T00850013  RH  061%=      5-min Rain = 0
KTA1 092251Z 32003KT 09/01 A3034 RMK A01 T00850011  RH  060%=      5-min Rain = 0
KTA1 092252Z 32004KT 09/01 A3034 RMK A01 T00850012  RH  060%=      5-min Rain = 0
KTA1 092253Z 32004KT 09/01 A3034 RMK A01 T00850011  RH  060%=      5-min Rain = 0
KTA1 092254Z 33003KT 09/01 A3034 RMK A01 T00850010  RH  059%=      5-min Rain = 0
KTA1 092255Z 35004KT 09/01 A3034 RMK A01 T00850010  RH  059%=      5-min Rain = 0
KTA1 092256Z 00004KT 09/01 A3034 RMK A01 T00850012  RH  060%=      5-min Rain = 0
KTA1 092257Z 35004KT 08/01 A3034 RMK A01 T00840009  RH  059%=      5-min Rain = 0
KTA1 092258Z 00004KT 08/01 A3034 RMK A01 T00840013  RH  061%=      5-min Rain = 0
KTA1 092259Z 01004KT 08/01 A3034 RMK A01 T00840012  RH  061%=      5-min Rain = 0
KTA1 092300Z 00003KT 08/01 A3034 RMK A01 T00830011  RH  061%=      5-min Rain = 0
KTA1 092301Z 02004KT 08/01 A3034 RMK A01 T00820011  RH  061%=      5-min Rain = 0
KTA1 092302Z 03004KT 08/01 A3034 RMK A01 T00810013  RH  062%=      5-min Rain = 0
KTA1 092303Z 03005KT 08/01 A3034 RMK A01 T00810012  RH  062%=      5-min Rain = 0
KTA1 092304Z 03004KT 08/01 A3034 RMK A01 T00800012  RH  062%=      5-min Rain = 0
KTA1 092305Z 04005KT 08/01 A3034 RMK A01 T00800014  RH  063%=      5-min Rain = 0
KTA1 092306Z 03005KT 08/01 A3034 RMK A01 T00790012  RH  062%=      5-min Rain = 0
KTA1 092307Z 03005KT 08/01 A3034 RMK A01 T00790012  RH  062%=      5-min Rain = 0
KTA1 092308Z 03005KT 08/01 A3034 RMK A01 T00790012  RH  062%=      5-min Rain = 0
KTA1 092309Z 03004KT 08/01 A3034 RMK A01 T00790012  RH  063%=      5-min Rain = 0
KTA1 092310Z 03004KT 08/01 A3034 RMK A01 T00790011  RH  062%=      5-min Rain = 0
KTA1 092311Z 04003KT 08/01 A3034 RMK A01 T00780012  RH  063%=      5-min Rain = 0
KTA1 092312Z 05004KT 08/01 A3034 RMK A01 T00780014  RH  064%=      5-min Rain = 0
KTA1 092313Z 05004KT 08/01 A3034 RMK A01 T00780013  RH  063%=      5-min Rain = 0
KTA1 092314Z 04004KT 08/01 A3034 RMK A01 T00780014  RH  064%=      5-min Rain = 0
KTA1 092315Z 04003KT 08/02 A3034 RMK A01 T00770016  RH  065%=      5-min Rain = 0
KTA1 092316Z 03004KT 08/02 A3034 RMK A01 T00770018  RH  066%=      5-min Rain = 0
KTA1 092317Z 03005KT 08/02 A3034 RMK A01 T00770015  RH  065%=      5-min Rain = 0
KTA1 092318Z 03005KT 08/01 A3034 RMK A01 T00770013  RH  064%=      5-min Rain = 0
KTA1 092319Z 02005KT 08/02 A3034 RMK A01 T00760015  RH  065%=      5-min Rain = 0
KTA1 092320Z 03005KT 08/02 A3034 RMK A01 T00760016  RH  066%=      5-min Rain = 0
KTA1 092321Z 02004KT 08/02 A3034 RMK A01 T00750017  RH  066%=      5-min Rain = 0
KTA1 092322Z 03004KT 08/02 A3034 RMK A01 T00750017  RH  067%=      5-min Rain = 0
KTA1 092323Z 03004KT 08/02 A3034 RMK A01 T00750017  RH  067%=      5-min Rain = 0
KTA1 092324Z 03003KT 07/02 A3034 RMK A01 T00740016  RH  066%=      5-min Rain = 0
KTA1 092325Z 03003KT 07/02 A3034 RMK A01 T00740018  RH  067%=      5-min Rain = 0
KTA1 092326Z 03004KT 07/02 A3034 RMK A01 T00740018  RH  068%=      5-min Rain = 0
KTA1 092327Z 03004KT 07/02 A3034 RMK A01 T00740017  RH  067%=      5-min Rain = 0
KTA1 092328Z 03004KT 07/02 A3034 RMK A01 T00730016  RH  067%=      5-min Rain = 0
KTA1 092329Z 03004KT 07/02 A3034 RMK A01 T00730016  RH  067%=      5-min Rain = 0
KTA1 092330Z 04004KT 07/02 A3034 RMK A01 T00720017  RH  068%=      5-min Rain = 0
KTA1 092331Z 03004KT 07/02 A3034 RMK A01 T00720018  RH  068%=      5-min Rain = 0
KTA1 092332Z 03004KT 07/02 A3034 RMK A01 T00720018  RH  069%=      5-min Rain = 0
KTA1 092333Z 03004KT 07/02 A3034 RMK A01 T00710019  RH  070%=      5-min Rain = 0
KTA1 092334Z 03004KT 07/02 A3034 RMK A01 T00710019  RH  070%=      5-min Rain = 0
KTA1 092335Z 03004KT 07/02 A3034 RMK A01 T00700018  RH  069%=      5-min Rain = 0
KTA1 092336Z 03004KT 07/02 A3034 RMK A01 T00700019  RH  070%=      5-min Rain = 0
KTA1 092337Z 03004KT 07/02 A3034 RMK A01 T00700018  RH  070%=      5-min Rain = 0
KTA1 092338Z 03004KT 07/02 A3034 RMK A01 T00690019  RH  070%=      5-min Rain = 0
KTA1 092339Z 03004KT 07/02 A3034 RMK A01 T00680020  RH  071%=      5-min Rain = 0
KTA1 092340Z 03004KT 07/02 A3034 RMK A01 T00680021  RH  072%=      5-min Rain = 0
KTA1 092341Z 03004KT 07/02 A3034 RMK A01 T00680021  RH  072%=      5-min Rain = 0
KTA1 092342Z 03004KT 07/02 A3034 RMK A01 T00670021  RH  072%=      5-min Rain = 0
KTA1 092343Z 03004KT 07/02 A3034 RMK A01 T00670021  RH  072%=      5-min Rain = 0
KTA1 092344Z 03004KT 07/02 A3034 RMK A01 T00660022  RH  073%=      5-min Rain = 0
KTA1 092345Z 03004KT 07/02 A3034 RMK A01 T00660022  RH  073%=      5-min Rain = 0
KTA1 092346Z 03004KT 07/02 A3034 RMK A01 T00650022  RH  074%=      5-min Rain = 0
KTA1 092347Z 02004KT 07/02 A3034 RMK A01 T00650022  RH  074%=      5-min Rain = 0
KTA1 092348Z 02004KT 06/02 A3034 RMK A01 T00640022  RH  074%=      5-min Rain = 0
KTA1 092349Z 02005KT 06/02 A3034 RMK A01 T00640023  RH  075%=      5-min Rain = 0
KTA1 092350Z 02005KT 06/02 A3034 RMK A01 T00640023  RH  075%=      5-min Rain = 0
KTA1 092351Z 02005KT 06/02 A3034 RMK A01 T00630024  RH  076%=      5-min Rain = 0
KTA1 092352Z 02005KT 06/02 A3034 RMK A01 T00630024  RH  076%=      5-min Rain = 0
KTA1 092353Z 03005KT 06/02 A3034 RMK A01 T00620023  RH  076%=      5-min Rain = 0
KTA1 092354Z 03005KT 06/02 A3034 RMK A01 T00620023  RH  076%=      5-min Rain = 0
KTA1 092355Z 03005KT 06/02 A3034 RMK A01 T00620023  RH  076%=      5-min Rain = 0
KTA1 092356Z 03005KT 06/02 A3034 RMK A01 T00620023  RH  076%=      5-min Rain = 0
KTA1 092357Z 03005KT 06/02 A3034 RMK A01 T00610023  RH  077%=      5-min Rain = 0
KTA1 092358Z 03005KT 06/02 A3034 RMK A01 T00610024  RH  077%=      5-min Rain = 0
KTA1 092359Z 02005KT 06/02 A3034 RMK A01 T00600024  RH  078%=      5-min Rain = 0
KTA1 100000Z 02006KT 06/02 A3034 RMK A01 T00600024  RH  078%=      5-min Rain = 0
KTA1 100001Z 02006KT 06/02 A3034 RMK A01 T00590024  RH  078%=      5-min Rain = 0
KTA1 100002Z 03006KT 06/02 A3034 RMK A01 T00590023  RH  078%=      5-min Rain = 0
KTA1 100003Z 03006KT 06/02 A3034 RMK A01 T00590024  RH  078%=      5-min Rain = 0
KTA1 100004Z 03006KT 06/02 A3034 RMK A01 T00590023  RH  078%=      5-min Rain = 0
KTA1 100005Z 03006KT 06/02 A3034 RMK A01 T00580023  RH  078%=      5-min Rain = 0
KTA1 100006Z 02006KT 06/02 A3035 RMK A01 T00580023  RH  078%=      5-min Rain = 0
KTA1 100007Z 02006KT 06/02 A3035 RMK A01 T00580022  RH  078%=      5-min Rain = 0
KTA1 100008Z 02005KT 06/02 A3035 RMK A01 T00580022  RH  078%=      5-min Rain = 0
KTA1 100009Z 02005KT 06/02 A3035 RMK A01 T00580022  RH  078%=      5-min Rain = 0
KTA1 100010Z 02006KT 06/02 A3035 RMK A01 T00570022  RH  078%=      5-min Rain = 0
KTA1 100011Z 03005KT 06/02 A3035 RMK A01 T00570022  RH  078%=      5-min Rain = 0
KTA1 100012Z 03005KT 06/02 A3035 RMK A01 T00570022  RH  078%=      5-min Rain = 0
KTA1 100013Z 02005KT 06/02 A3035 RMK A01 T00570022  RH  078%=      5-min Rain = 0
KTA1 100014Z 03005KT 06/02 A3035 RMK A01 T00560022  RH  078%=      5-min Rain = 0
KTA1 100015Z 03005KT 06/02 A3035 RMK A01 T00560021  RH  078%=      5-min Rain = 0
KTA1 100016Z 02006KT 06/02 A3035 RMK A01 T00560021  RH  078%=      5-min Rain = 0
KTA1 100017Z 02006KT 06/02 A3035 RMK A01 T00550021  RH  079%=      5-min Rain = 0
KTA1 100018Z 02005KT 06/02 A3035 RMK A01 T00560021  RH  078%=      5-min Rain = 0
KTA1 100019Z 02005KT 06/02 A3035 RMK A01 T00550021  RH  079%=      5-min Rain = 0
KTA1 100020Z 02005KT 06/02 A3035 RMK A01 T00550021  RH  079%=      5-min Rain = 0
KTA1 100021Z 02005KT 05/02 A3035 RMK A01 T00540021  RH  079%=      5-min Rain = 0
KTA1 100022Z 02005KT 05/02 A3035 RMK A01 T00540021  RH  079%=      5-min Rain = 0
KTA1 100023Z 02005KT 05/02 A3035 RMK A01 T00540021  RH  079%=      5-min Rain = 0
KTA1 100024Z 02005KT 05/02 A3035 RMK A01 T00540021  RH  079%=      5-min Rain = 0
KTA1 100025Z 02005KT 05/02 A3035 RMK A01 T00540021  RH  079%=      5-min Rain = 0
KTA1 100026Z 02005KT 05/02 A3035 RMK A01 T00530020  RH  079%=      5-min Rain = 0
KTA1 100027Z 02005KT 05/02 A3035 RMK A01 T00530020  RH  079%=      5-min Rain = 0
KTA1 100028Z 02005KT 05/02 A3035 RMK A01 T00530021  RH  080%=      5-min Rain = 0
KTA1 100029Z 02005KT 05/02 A3035 RMK A01 T00530021  RH  080%=      5-min Rain = 0
KTA1 100030Z 03005KT 05/02 A3035 RMK A01 T00520021  RH  080%=      5-min Rain = 0
KTA1 100031Z 03005KT 05/02 A3035 RMK A01 T00520021  RH  080%=      5-min Rain = 0
KTA1 100032Z 03005KT 05/02 A3035 RMK A01 T00520021  RH  080%=      5-min Rain = 0
KTA1 100033Z 03005KT 05/02 A3035 RMK A01 T00510020  RH  080%=      5-min Rain = 0
KTA1 100034Z 03005KT 05/02 A3035 RMK A01 T00510020  RH  080%=      5-min Rain = 0
KTA1 100035Z 03005KT 05/02 A3035 RMK A01 T00510020  RH  080%=      5-min Rain = 0
KTA1 100036Z 03005KT 05/02 A3035 RMK A01 T00510021  RH  081%=      5-min Rain = 0
KTA1 100037Z 03005KT 05/02 A3035 RMK A01 T00500021  RH  081%=      5-min Rain = 0
KTA1 100038Z 03005KT 05/02 A3035 RMK A01 T00500020  RH  081%=      5-min Rain = 0
KTA1 100039Z 03005KT 05/02 A3035 RMK A01 T00490020  RH  081%=      5-min Rain = 0
KTA1 100040Z 03005KT 05/02 A3035 RMK A01 T00490020  RH  081%=      5-min Rain = 0
KTA1 100041Z 03005KT 05/02 A3035 RMK A01 T00490020  RH  081%=      5-min Rain = 0
KTA1 100042Z 03005KT 05/02 A3035 RMK A01 T00490020  RH  081%=      5-min Rain = 0
KTA1 100043Z 03005KT 05/02 A3035 RMK A01 T00490019  RH  081%=      5-min Rain = 0
KTA1 100044Z 03005KT 05/02 A3035 RMK A01 T00480019  RH  081%=      5-min Rain = 0
KTA1 100045Z 03005KT 05/02 A3035 RMK A01 T00480020  RH  082%=      5-min Rain = 0
KTA1 100046Z 03005KT 05/02 A3035 RMK A01 T00480020  RH  082%=      5-min Rain = 0
KTA1 100047Z 03005KT 05/02 A3035 RMK A01 T00480020  RH  082%=      5-min Rain = 0
KTA1 100048Z 03005KT 05/02 A3035 RMK A01 T00470020  RH  082%=      5-min Rain = 0
KTA1 100049Z 02005KT 05/02 A3035 RMK A01 T00470020  RH  082%=      5-min Rain = 0
KTA1 100050Z 02005KT 05/02 A3035 RMK A01 T00470020  RH  083%=      5-min Rain = 0
KTA1 100051Z 02005KT 05/02 A3036 RMK A01 T00470020  RH  083%=      5-min Rain = 0
KTA1 100052Z 02005KT 05/02 A3036 RMK A01 T00460019  RH  083%=      5-min Rain = 0
KTA1 100053Z 02005KT 05/02 A3036 RMK A01 T00460019  RH  083%=      5-min Rain = 0
KTA1 100054Z 02005KT 05/02 A3036 RMK A01 T00460019  RH  083%=      5-min Rain = 0
KTA1 100055Z 02005KT 05/02 A3036 RMK A01 T00460020  RH  083%=      5-min Rain = 0
KTA1 100056Z 02005KT 05/02 A3036 RMK A01 T00450019  RH  083%=      5-min Rain = 0
KTA1 100057Z 02005KT 05/02 A3036 RMK A01 T00450019  RH  083%=      5-min Rain = 0
KTA1 100058Z 02005KT 05/02 A3036 RMK A01 T00450019  RH  083%=      5-min Rain = 0
KTA1 100059Z 02005KT 05/02 A3036 RMK A01 T00450019  RH  083%=      5-min Rain = 0
KTA1 100100Z 02005KT 05/02 A3036 RMK A01 T00450019  RH  083%=      5-min Rain = 0
KTA1 100101Z 02005KT 05/02 A3036 RMK A01 T00450019  RH  083%=      5-min Rain = 0
KTA1 100102Z 02005KT 04/02 A3036 RMK A01 T00440019  RH  084%=      5-min Rain = 0
KTA1 100103Z 02005KT 04/02 A3036 RMK A01 T00440019  RH  084%=      5-min Rain = 0
KTA1 100104Z 02005KT 04/02 A3036 RMK A01 T00440019  RH  084%=      5-min Rain = 0
KTA1 100105Z 02005KT 04/02 A3036 RMK A01 T00430019  RH  084%=      5-min Rain = 0
KTA1 100106Z 02005KT 04/02 A3036 RMK A01 T00430019  RH  084%=      5-min Rain = 0
KTA1 100107Z 02005KT 04/02 A3036 RMK A01 T00430019  RH  085%=      5-min Rain = 0
KTA1 100108Z 02005KT 04/02 A3036 RMK A01 T00420019  RH  085%=      5-min Rain = 0
KTA1 100109Z 02005KT 04/02 A3036 RMK A01 T00420019  RH  085%=      5-min Rain = 0
KTA1 100110Z 02005KT 04/02 A3036 RMK A01 T00410019  RH  085%=      5-min Rain = 0
KTA1 100111Z 02005KT 04/02 A3036 RMK A01 T00410019  RH  085%=      5-min Rain = 0
KTA1 100112Z 02005KT 04/02 A3036 RMK A01 T00400018  RH  086%=      5-min Rain = 0
KTA1 100113Z 02005KT 04/02 A3036 RMK A01 T00400018  RH  086%=      5-min Rain = 0
KTA1 100114Z 02005KT 04/02 A3036 RMK A01 T00400018  RH  086%=      5-min Rain = 0
KTA1 100115Z 02006KT 04/02 A3036 RMK A01 T00400018  RH  086%=      5-min Rain = 0
KTA1 100116Z 02006KT 04/02 A3036 RMK A01 T00400018  RH  086%=      5-min Rain = 0
KTA1 100117Z 02006KT 04/02 A3036 RMK A01 T00400018  RH  085%=      5-min Rain = 0
KTA1 100118Z 02006KT 04/02 A3036 RMK A01 T00400018  RH  085%=      5-min Rain = 0
KTA1 100119Z 02006KT 04/02 A3036 RMK A01 T00400018  RH  085%=      5-min Rain = 0
KTA1 100120Z 02006KT 04/02 A3036 RMK A01 T00400017  RH  085%=      5-min Rain = 0
KTA1 100121Z 02006KT 04/02 A3036 RMK A01 T00400017  RH  085%=      5-min Rain = 0
KTA1 100122Z 02006KT 04/02 A3036 RMK A01 T00400017  RH  085%=      5-min Rain = 0
KTA1 100123Z 02006KT 04/02 A3036 RMK A01 T00400016  RH  085%=      5-min Rain = 0
KTA1 100124Z 02006KT 04/02 A3036 RMK A01 T00400016  RH  084%=      5-min Rain = 0
KTA1 100125Z 02006KT 04/02 A3036 RMK A01 T00400015  RH  084%=      5-min Rain = 0
KTA1 100126Z 02006KT 04/02 A3036 RMK A01 T00400015  RH  084%=      5-min Rain = 0
KTA1 100127Z 02007KT 04/02 A3036 RMK A01 T00400015  RH  084%=      5-min Rain = 0
KTA1 100128Z 01007KT 04/02 A3036 RMK A01 T00400015  RH  084%=      5-min Rain = 0
KTA1 100129Z 02006KT 04/02 A3036 RMK A01 T00400015  RH  084%=      5-min Rain = 0
KTA1 100130Z 01006KT 04/01 A3036 RMK A01 T00400014  RH  083%=      5-min Rain = 0
KTA1 100131Z 01006KT 04/01 A3036 RMK A01 T00400014  RH  083%=      5-min Rain = 0
KTA1 100132Z 02006KT 04/01 A3036 RMK A01 T00400014  RH  083%=      5-min Rain = 0
KTA1 100133Z 02006KT 04/01 A3036 RMK A01 T00400013  RH  083%=      5-min Rain = 0
KTA1 100134Z 02006KT 04/01 A3036 RMK A01 T00400013  RH  083%=      5-min Rain = 0
KTA1 100135Z 02006KT 04/01 A3036 RMK A01 T00390013  RH  083%=      5-min Rain = 0
KTA1 100136Z 02006KT 04/01 A3036 RMK A01 T00390013  RH  083%=      5-min Rain = 0
KTA1 100137Z 02006KT 04/01 A3036 RMK A01 T00390013  RH  083%=      5-min Rain = 0
KTA1 100138Z 02006KT 04/01 A3036 RMK A01 T00390013  RH  083%=      5-min Rain = 0
KTA1 100139Z 02006KT 04/01 A3036 RMK A01 T00390013  RH  083%=      5-min Rain = 0
KTA1 100140Z 02006KT 04/01 A3036 RMK A01 T00390014  RH  084%=      5-min Rain = 0
KTA1 100141Z 02006KT 04/01 A3036 RMK A01 T00390013  RH  083%=      5-min Rain = 0
KTA1 100142Z 02006KT 04/01 A3036 RMK A01 T00390013  RH  083%=      5-min Rain = 0
KTA1 100143Z 02006KT 04/01 A3036 RMK A01 T00390013  RH  083%=      5-min Rain = 0
KTA1 100144Z 02006KT 04/01 A3036 RMK A01 T00390013  RH  083%=      5-min Rain = 0
KTA1 100145Z 02006KT 04/01 A3037 RMK A01 T00390013  RH  083%=      5-min Rain = 0
KTA1 100146Z 02006KT 04/01 A3037 RMK A01 T00380013  RH  083%=      5-min Rain = 0
KTA1 100147Z 02006KT 04/01 A3037 RMK A01 T00380013  RH  084%=      5-min Rain = 0
KTA1 100148Z 02006KT 04/01 A3037 RMK A01 T00380013  RH  083%=      5-min Rain = 0
KTA1 100149Z 02006KT 04/01 A3037 RMK A01 T00380013  RH  084%=      5-min Rain = 0
KTA1 100150Z 02007KT 04/01 A3037 RMK A01 T00380013  RH  084%=      5-min Rain = 0
KTA1 100151Z 02006KT 04/01 A3037 RMK A01 T00380013  RH  084%=      5-min Rain = 0
KTA1 100152Z 02006KT 04/01 A3037 RMK A01 T00380013  RH  084%=      5-min Rain = 0
KTA1 100153Z 02007KT 04/01 A3037 RMK A01 T00380013  RH  084%=      5-min Rain = 0
KTA1 100154Z 02006KT 04/01 A3037 RMK A01 T00380013  RH  083%=      5-min Rain = 0
KTA1 100155Z 02007KT 04/01 A3037 RMK A01 T00380012  RH  083%=      5-min Rain = 0
KTA1 100156Z 02006KT 04/01 A3037 RMK A01 T00380012  RH  083%=      5-min Rain = 0
KTA1 100157Z 02007KT 04/01 A3037 RMK A01 T00380012  RH  083%=      5-min Rain = 0
KTA1 100158Z 02006KT 04/01 A3037 RMK A01 T00380012  RH  084%=      5-min Rain = 0
KTA1 100159Z 02006KT 04/01 A3037 RMK A01 T00380012  RH  083%=      5-min Rain = 0
KTA1 100200Z 02007KT 04/01 A3037 RMK A01 T00380012  RH  083%=      5-min Rain = 0
KTA1 100201Z 02006KT 04/01 A3037 RMK A01 T00380012  RH  083%=      5-min Rain = 0
KTA1 100202Z 02007KT 04/01 A3037 RMK A01 T00370012  RH  083%=      5-min Rain = 0
KTA1 100203Z 02006KT 04/01 A3037 RMK A01 T00370011  RH  084%=      5-min Rain = 0
KTA1 100204Z 02006KT 04/01 A3037 RMK A01 T00370012  RH  084%=      5-min Rain = 0
KTA1 100205Z 02006KT 04/01 A3037 RMK A01 T00360011  RH  083%=      5-min Rain = 0
KTA1 100206Z 02006KT 04/01 A3038 RMK A01 T00360011  RH  084%=      5-min Rain = 0
KTA1 100207Z 02007KT 04/01 A3038 RMK A01 T00360011  RH  084%=      5-min Rain = 0
KTA1 100208Z 02007KT 04/01 A3038 RMK A01 T00360011  RH  084%=      5-min Rain = 0
KTA1 100209Z 02006KT 04/01 A3038 RMK A01 T00350010  RH  084%=      5-min Rain = 0
KTA1 100210Z 02007KT 04/01 A3038 RMK A01 T00350010  RH  084%=      5-min Rain = 0
KTA1 100211Z 02007KT 04/01 A3038 RMK A01 T00350010  RH  084%=      5-min Rain = 0
KTA1 100212Z 02006KT 03/01 A3038 RMK A01 T00340010  RH  084%=      5-min Rain = 0
KTA1 100213Z 02006KT 03/01 A3038 RMK A01 T00340010  RH  084%=      5-min Rain = 0
KTA1 100214Z 02006KT 03/01 A3038 RMK A01 T00330010  RH  084%=      5-min Rain = 0
KTA1 100215Z 02005KT 03/01 A3038 RMK A01 T00330010  RH  085%=      5-min Rain = 0
KTA1 100216Z 02006KT 03/01 A3038 RMK A01 T00330010  RH  085%=      5-min Rain = 0
KTA1 100217Z 02006KT 03/01 A3038 RMK A01 T00320009  RH  085%=      5-min Rain = 0
KTA1 100218Z 02006KT 03/01 A3038 RMK A01 T00320009  RH  085%=      5-min Rain = 0
KTA1 100219Z 02006KT 03/01 A3038 RMK A01 T00320009  RH  085%=      5-min Rain = 0
KTA1 100220Z 02006KT 03/01 A3038 RMK A01 T00310009  RH  085%=      5-min Rain = 0
KTA1 100221Z 02006KT 03/01 A3038 RMK A01 T00310009  RH  086%=      5-min Rain = 0
KTA1 100222Z 02006KT 03/01 A3038 RMK A01 T00310009  RH  086%=      5-min Rain = 0
KTA1 100223Z 02006KT 03/01 A3038 RMK A01 T00310009  RH  086%=      5-min Rain = 0
KTA1 100224Z 02006KT 03/01 A3038 RMK A01 T00310009  RH  086%=      5-min Rain = 0
KTA1 100225Z 02006KT 03/01 A3038 RMK A01 T00300008  RH  086%=      5-min Rain = 0
KTA1 100226Z 02005KT 03/01 A3038 RMK A01 T00300008  RH  086%=      5-min Rain = 0
KTA1 100227Z 02005KT 03/01 A3038 RMK A01 T00300008  RH  086%=      5-min Rain = 0
KTA1 100228Z 02005KT 03/01 A3038 RMK A01 T00290008  RH  086%=      5-min Rain = 0
KTA1 100229Z 02005KT 03/01 A3038 RMK A01 T00290008  RH  086%=      5-min Rain = 0
KTA1 100230Z 02005KT 03/01 A3038 RMK A01 T00290008  RH  086%=      5-min Rain = 0
KTA1 100231Z 02005KT 03/01 A3038 RMK A01 T00290007  RH  086%=      5-min Rain = 0
KTA1 100232Z 02005KT 03/01 A3038 RMK A01 T00290007  RH  086%=      5-min Rain = 0
KTA1 100233Z 02004KT 03/01 A3038 RMK A01 T00280007  RH  086%=      5-min Rain = 0
KTA1 100234Z 02004KT 03/01 A3038 RMK A01 T00280007  RH  086%=      5-min Rain = 0
KTA1 100235Z 02004KT 03/01 A3038 RMK A01 T00280007  RH  086%=      5-min Rain = 0
KTA1 100236Z 02004KT 03/01 A3038 RMK A01 T00280007  RH  086%=      5-min Rain = 0
KTA1 100237Z 02004KT 03/01 A3038 RMK A01 T00270007  RH  086%=      5-min Rain = 0
KTA1 100238Z 01004KT 03/01 A3038 RMK A01 T00270007  RH  086%=      5-min Rain = 0
KTA1 100239Z 01004KT 03/01 A3038 RMK A01 T00260006  RH  087%=      5-min Rain = 0
KTA1 100240Z 01004KT 03/01 A3038 RMK A01 T00260006  RH  087%=      5-min Rain = 0
KTA1 100241Z 01003KT 03/01 A3038 RMK A01 T00250006  RH  087%=      5-min Rain = 0
KTA1 100242Z 01003KT 03/01 A3038 RMK A01 T00250006  RH  088%=      5-min Rain = 0
KTA1 100243Z 01003KT 02/01 A3038 RMK A01 T00240006  RH  088%=      5-min Rain = 0
KTA1 100244Z 01004KT 02/01 A3038 RMK A01 T00240006  RH  088%=      5-min Rain = 0
KTA1 100245Z 01003KT 02/01 A3038 RMK A01 T00230005  RH  088%=      5-min Rain = 0
KTA1 100246Z 01003KT 02/01 A3038 RMK A01 T00220005  RH  088%=      5-min Rain = 0
KTA1 100247Z 00003KT 02/01 A3038 RMK A01 T00210005  RH  089%=      5-min Rain = 0
KTA1 100248Z 00003KT 02/00 A3038 RMK A01 T00210004  RH  089%=      5-min Rain = 0
KTA1 100249Z 00003KT 02/00 A3038 RMK A01 T00200004  RH  089%=      5-min Rain = 0
KTA1 100250Z 00003KT 02/00 A3038 RMK A01 T00190004  RH  090%=      5-min Rain = 0
KTA1 100251Z 00003KT 02/00 A3038 RMK A01 T00190004  RH  090%=      5-min Rain = 0
KTA1 100252Z 00004KT 02/00 A3038 RMK A01 T00180004  RH  090%=      5-min Rain = 0
KTA1 100253Z 00004KT 02/00 A3038 RMK A01 T00180004  RH  091%=      5-min Rain = 0
KTA1 100254Z 00004KT 02/01 A3038 RMK A01 T00180005  RH  091%=      5-min Rain = 0
KTA1 100255Z 00004KT 02/00 A3038 RMK A01 T00180004  RH  091%=      5-min Rain = 0
KTA1 100256Z 00004KT 02/00 A3038 RMK A01 T00180004  RH  091%=      5-min Rain = 0
KTA1 100257Z 00004KT 02/00 A3038 RMK A01 T00180004  RH  091%=      5-min Rain = 0
KTA1 100258Z 00004KT 02/00 A3038 RMK A01 T00180004  RH  091%=      5-min Rain = 0
KTA1 100259Z 00004KT 02/00 A3038 RMK A01 T00180004  RH  091%=      5-min Rain = 0
KTA1 100300Z 00004KT 02/00 A3038 RMK A01 T00170004  RH  091%=      5-min Rain = 0
KTA1 100301Z 00004KT 02/00 A3038 RMK A01 T00170004  RH  091%=      5-min Rain = 0
KTA1 100302Z 00004KT 02/00 A3038 RMK A01 T00170003  RH  090%=      5-min Rain = 0
KTA1 100303Z 00004KT 02/00 A3038 RMK A01 T00180003  RH  090%=      5-min Rain = 0
KTA1 100304Z 00004KT 02/00 A3038 RMK A01 T00170003  RH  090%=      5-min Rain = 0
KTA1 100305Z 00004KT 02/00 A3038 RMK A01 T00170002  RH  090%=      5-min Rain = 0
KTA1 100306Z 00003KT 02/00 A3038 RMK A01 T00170002  RH  090%=      5-min Rain = 0
KTA1 100307Z 00003KT 02/00 A3038 RMK A01 T00170002  RH  090%=      5-min Rain = 0
KTA1 100308Z 00002KT 02/00 A3038 RMK A01 T00170002  RH  090%=      5-min Rain = 0
KTA1 100309Z 00002KT 02/00 A3037 RMK A01 T00170001  RH  090%=      5-min Rain = 0
KTA1 100310Z 00002KT 02/00 A3037 RMK A01 T00160001  RH  090%=      5-min Rain = 0
KTA1 100311Z 00002KT 02/00 A3038 RMK A01 T00170002  RH  090%=      5-min Rain = 0
KTA1 100312Z 00002KT 02/00 A3038 RMK A01 T00170002  RH  090%=      5-min Rain = 0
KTA1 100313Z 00002KT 02/00 A3038 RMK A01 T00160002  RH  090%=      5-min Rain = 0
KTA1 100314Z 00003KT 02/00 A3038 RMK A01 T00160003  RH  091%=      5-min Rain = 0
KTA1 100315Z 00003KT 02/00 A3038 RMK A01 T00170003  RH  091%=      5-min Rain = 0
KTA1 100316Z 00004KT 02/00 A3038 RMK A01 T00170003  RH  091%=      5-min Rain = 0
KTA1 100317Z 00005KT 02/00 A3038 RMK A01 T00170003  RH  090%=      5-min Rain = 0
KTA1 100318Z 00005KT 02/00 A3039 RMK A01 T00170002  RH  090%=      5-min Rain = 0
KTA1 100319Z 00005KT 02/00 A3039 RMK A01 T00170002  RH  090%=      5-min Rain = 0
KTA1 100320Z 00005KT 02/00 A3039 RMK A01 T00160001  RH  090%=      5-min Rain = 0
KTA1 100321Z 00005KT 02/00 A3039 RMK A01 T00160001  RH  090%=      5-min Rain = 0
KTA1 100322Z 00005KT 02/00 A3039 RMK A01 T00160001  RH  090%=      5-min Rain = 0
KTA1 100323Z 00005KT 02/00 A3039 RMK A01 T00160001  RH  090%=      5-min Rain = 0
KTA1 100324Z 00005KT 02/00 A3039 RMK A01 T00160001  RH  090%=      5-min Rain = 0
KTA1 100325Z 00005KT 02/00 A3039 RMK A01 T00160001  RH  090%=      5-min Rain = 0
KTA1 100326Z 00005KT 02/00 A3039 RMK A01 T00160001  RH  090%=      5-min Rain = 0
KTA1 100327Z 00005KT 02/00 A3039 RMK A01 T00160001  RH  090%=      5-min Rain = 0
KTA1 100328Z 00005KT 02/00 A3039 RMK A01 T00160000  RH  090%=      5-min Rain = 0
KTA1 100329Z 36005KT 02/00 A3039 RMK A01 T001500-0  RH  090%=      5-min Rain = 0
KTA1 100330Z 00005KT 02/00 A3039 RMK A01 T001500-0  RH  090%=      5-min Rain = 0
KTA1 100331Z 00005KT 02/00 A3039 RMK A01 T001500-0  RH  090%=      5-min Rain = 0
KTA1 100332Z 36005KT 02/00 A3039 RMK A01 T001500-0  RH  090%=      5-min Rain = 0
KTA1 100333Z 00005KT 02/00 A3039 RMK A01 T001500-0  RH  090%=      5-min Rain = 0
KTA1 100334Z 00005KT 02/M00 A3039 RMK A01 T00151001  RH  089%=      5-min Rain = 0
KTA1 100335Z 36005KT 01/M00 A3039 RMK A01 T00141001  RH  089%=      5-min Rain = 0
KTA1 100336Z 35005KT 02/M00 A3039 RMK A01 T00151001  RH  089%=      5-min Rain = 0
KTA1 100337Z 35005KT 01/M00 A3039 RMK A01 T00141002  RH  089%=      5-min Rain = 0
KTA1 100338Z 35006KT 01/M00 A3039 RMK A01 T00141002  RH  089%=      5-min Rain = 0
KTA1 100339Z 35006KT 01/M00 A3039 RMK A01 T00141002  RH  089%=      5-min Rain = 0
KTA1 100340Z 35006KT 01/M00 A3039 RMK A01 T00131002  RH  089%=      5-min Rain = 0
KTA1 100341Z 35005KT 01/M00 A3039 RMK A01 T00131002  RH  090%=      5-min Rain = 0
KTA1 100342Z 35005KT 01/M00 A3039 RMK A01 T00131002  RH  090%=      5-min Rain = 0
KTA1 100343Z 35005KT 01/M00 A3039 RMK A01 T00131003  RH  089%=      5-min Rain = 0
KTA1 100344Z 35006KT 01/M00 A3039 RMK A01 T00121003  RH  089%=      5-min Rain = 0
KTA1 100345Z 35006KT 01/M00 A3039 RMK A01 T00121004  RH  089%=      5-min Rain = 0
KTA1 100346Z 35007KT 01/M00 A3039 RMK A01 T00121004  RH  089%=      5-min Rain = 0
KTA1 100347Z 35007KT 01/M00 A3039 RMK A01 T00121004  RH  089%=      5-min Rain = 0
KTA1 100348Z 36006KT 01/M00 A3039 RMK A01 T00121003  RH  089%=      5-min Rain = 0
KTA1 100349Z 36006KT 01/M00 A3039 RMK A01 T00121004  RH  089%=      5-min Rain = 0
KTA1 100350Z 36006KT 01/M00 A3039 RMK A01 T00121003  RH  089%=      5-min Rain = 0
KTA1 100351Z 35005KT 01/M00 A3039 RMK A01 T00131004  RH  089%=      5-min Rain = 0
KTA1 100352Z 35005KT 01/M00 A3039 RMK A01 T00131004  RH  089%=      5-min Rain = 0
KTA1 100353Z 35006KT 01/M00 A3039 RMK A01 T00131004  RH  088%=      5-min Rain = 0
KTA1 100354Z 35006KT 01/M01 A3039 RMK A01 T00131005  RH  088%=      5-min Rain = 0
KTA1 100355Z 35006KT 01/M01 A3039 RMK A01 T00121005  RH  088%=      5-min Rain = 0
KTA1 100356Z 35006KT 01/M01 A3039 RMK A01 T00121006  RH  088%=      5-min Rain = 0
KTA1 100357Z 35007KT 01/M01 A3039 RMK A01 T00121006  RH  088%=      5-min Rain = 0
KTA1 100358Z 35007KT 01/M01 A3039 RMK A01 T00111006  RH  089%=      5-min Rain = 0
KTA1 100359Z 35007KT 01/M01 A3039 RMK A01 T00111006  RH  089%=      5-min Rain = 0
KTA1 100400Z 35006KT 01/M01 A3039 RMK A01 T00111005  RH  089%=      5-min Rain = 0
KTA1 100401Z 35006KT 01/M01 A3039 RMK A01 T00111005  RH  089%=      5-min Rain = 0
KTA1 100402Z 35006KT 01/M00 A3039 RMK A01 T00111004  RH  090%=      5-min Rain = 0
KTA1 100403Z 35006KT 01/M01 A3039 RMK A01 T00101005  RH  090%=      5-min Rain = 0
KTA1 100404Z 35007KT 01/M01 A3039 RMK A01 T00101005  RH  090%=      5-min Rain = 0
KTA1 100405Z 35007KT 01/M01 A3039 RMK A01 T00101005  RH  090%=      5-min Rain = 0
KTA1 100406Z 36006KT 01/M01 A3039 RMK A01 T00101005  RH  090%=      5-min Rain = 0
KTA1 100407Z 36006KT 01/M01 A3039 RMK A01 T00101005  RH  090%=      5-min Rain = 0
KTA1 100408Z 00006KT 01/M01 A3039 RMK A01 T00101005  RH  090%=      5-min Rain = 0
KTA1 100409Z 36006KT 01/M01 A3039 RMK A01 T00111005  RH  089%=      5-min Rain = 0
KTA1 100410Z 36005KT 01/M01 A3039 RMK A01 T00111006  RH  089%=      5-min Rain = 0
KTA1 100411Z 35005KT 01/M01 A3039 RMK A01 T00111006  RH  089%=      5-min Rain = 0
KTA1 100412Z 35005KT 01/M01 A3039 RMK A01 T00101006  RH  089%=      5-min Rain = 0
KTA1 100413Z 35006KT 01/M01 A3039 RMK A01 T00101006  RH  089%=      5-min Rain = 0
KTA1 100414Z 35005KT 01/M01 A3039 RMK A01 T00101006  RH  089%=      5-min Rain = 0
KTA1 100415Z 36006KT 01/M01 A3039 RMK A01 T00101006  RH  089%=      5-min Rain = 0
KTA1 100416Z 00006KT 01/M01 A3039 RMK A01 T00101006  RH  089%=      5-min Rain = 0
KTA1 100417Z 00006KT 01/M01 A3039 RMK A01 T00091006  RH  089%=      5-min Rain = 0
KTA1 100418Z 00006KT 01/M01 A3039 RMK A01 T00091006  RH  090%=      5-min Rain = 0
KTA1 100419Z 36006KT 01/M01 A3039 RMK A01 T00091006  RH  090%=      5-min Rain = 0
KTA1 100420Z 36005KT 01/M01 A3039 RMK A01 T00091006  RH  090%=      5-min Rain = 0
KTA1 100421Z 35005KT 01/M01 A3039 RMK A01 T00091006  RH  090%=      5-min Rain = 0
KTA1 100422Z 35005KT 01/M01 A3039 RMK A01 T00091007  RH  089%=      5-min Rain = 0
KTA1 100423Z 36006KT 01/M01 A3039 RMK A01 T00081008  RH  089%=      5-min Rain = 0
KTA1 100424Z 35006KT 01/M01 A3039 RMK A01 T00081008  RH  089%=      5-min Rain = 0
KTA1 100425Z 36006KT 01/M01 A3039 RMK A01 T00081008  RH  089%=      5-min Rain = 0
KTA1 100426Z 36005KT 01/M01 A3039 RMK A01 T00071008  RH  089%=      5-min Rain = 0
KTA1 100427Z 35005KT 01/M01 A3039 RMK A01 T00071009  RH  089%=      5-min Rain = 0
KTA1 100428Z 36005KT 01/M01 A3039 RMK A01 T00071009  RH  089%=      5-min Rain = 0
KTA1 100429Z 35004KT 01/M01 A3039 RMK A01 T00061009  RH  089%=      5-min Rain = 0
KTA1 100430Z 35004KT 01/M01 A3039 RMK A01 T00061009  RH  089%=      5-min Rain = 0
KTA1 100431Z 35004KT 01/M01 A3039 RMK A01 T00061010  RH  089%=      5-min Rain = 0
KTA1 100432Z 35004KT 01/M01 A3039 RMK A01 T00051010  RH  089%=      5-min Rain = 0
KTA1 100433Z 35004KT 01/M01 A3039 RMK A01 T00061011  RH  089%=      5-min Rain = 0
KTA1 100434Z 35004KT 01/M01 A3039 RMK A01 T00051011  RH  089%=      5-min Rain = 0
KTA1 100435Z 35004KT 01/M01 A3039 RMK A01 T00051012  RH  089%=      5-min Rain = 0
KTA1 100436Z 35004KT 01/M01 A3039 RMK A01 T00051012  RH  089%=      5-min Rain = 0
KTA1 100437Z 35004KT 01/M01 A3039 RMK A01 T00051012  RH  089%=      5-min Rain = 0
KTA1 100438Z 35005KT 01/M01 A3039 RMK A01 T00051012  RH  089%=      5-min Rain = 0
KTA1 100439Z 35005KT 01/M01 A3039 RMK A01 T00051012  RH  089%=      5-min Rain = 0
KTA1 100440Z 35005KT 01/M01 A3039 RMK A01 T00051011  RH  089%=      5-min Rain = 0
KTA1 100441Z 35006KT 01/M01 A3039 RMK A01 T00051011  RH  089%=      5-min Rain = 0
KTA1 100442Z 35006KT 01/M01 A3039 RMK A01 T00061010  RH  089%=      5-min Rain = 0
KTA1 100443Z 35006KT 01/M01 A3039 RMK A01 T00061010  RH  089%=      5-min Rain = 0
KTA1 100444Z 35005KT 01/M01 A3039 RMK A01 T00061010  RH  089%=      5-min Rain = 0
KTA1 100445Z 35006KT 01/M01 A3039 RMK A01 T00071010  RH  089%=      5-min Rain = 0
KTA1 100446Z 35005KT 01/M01 A3039 RMK A01 T00071010  RH  089%=      5-min Rain = 0
KTA1 100447Z 35005KT 01/M01 A3039 RMK A01 T00061011  RH  088%=      5-min Rain = 0
KTA1 100448Z 35005KT 01/M01 A3039 RMK A01 T00061011  RH  088%=      5-min Rain = 0
KTA1 100449Z 35005KT 01/M01 A3039 RMK A01 T00061011  RH  088%=      5-min Rain = 0
KTA1 100450Z 35005KT 01/M01 A3039 RMK A01 T00061012  RH  088%=      5-min Rain = 0
KTA1 100451Z 36005KT 01/M01 A3039 RMK A01 T00061012  RH  088%=      5-min Rain = 0
KTA1 100452Z 00005KT 01/M01 A3039 RMK A01 T00061012  RH  088%=      5-min Rain = 0
KTA1 100453Z 36005KT 01/M01 A3039 RMK A01 T00061011  RH  088%=      5-min Rain = 0
KTA1 100454Z 35005KT 01/M01 A3039 RMK A01 T00061011  RH  088%=      5-min Rain = 0
KTA1 100455Z 35006KT 01/M01 A3039 RMK A01 T00061011  RH  088%=      5-min Rain = 0
KTA1 100456Z 35005KT 01/M01 A3039 RMK A01 T00061012  RH  088%=      5-min Rain = 0
KTA1 100457Z 35005KT 01/M01 A3039 RMK A01 T00051012  RH  088%=      5-min Rain = 0
KTA1 100458Z 35006KT 01/M01 A304 RMK A01 T00051013  RH  088%=      5-min Rain = 0
KTA1 100459Z 35006KT 00/M01 A304 RMK A01 T00041013  RH  088%=      5-min Rain = 0
KTA1 100500Z 35005KT 00/M01 A304 RMK A01 T00041013  RH  088%=      5-min Rain = 0
KTA1 100501Z 35005KT 00/M01 A304 RMK A01 T00041014  RH  088%=      5-min Rain = 0
KTA1 100502Z 35005KT 00/M01 A304 RMK A01 T00041014  RH  088%=      5-min Rain = 0
KTA1 100503Z 35005KT 00/M01 A304 RMK A01 T00041014  RH  088%=      5-min Rain = 0
KTA1 100504Z 35005KT 00/M01 A304 RMK A01 T00041014  RH  088%=      5-min Rain = 0
KTA1 100505Z 35005KT 00/M01 A304 RMK A01 T00041013  RH  088%=      5-min Rain = 0
KTA1 100506Z 35005KT 00/M01 A304 RMK A01 T00041013  RH  088%=      5-min Rain = 0
KTA1 100507Z 35005KT 01/M01 A304 RMK A01 T00051013  RH  088%=      5-min Rain = 0
KTA1 100508Z 34005KT 01/M01 A304 RMK A01 T00051013  RH  088%=      5-min Rain = 0
KTA1 100509Z 34005KT 01/M01 A304 RMK A01 T00051013  RH  088%=      5-min Rain = 0
KTA1 100510Z 34004KT 01/M01 A304 RMK A01 T00051013  RH  088%=      5-min Rain = 0
KTA1 100511Z 34004KT 01/M01 A304 RMK A01 T00051013  RH  088%=      5-min Rain = 0
KTA1 100512Z 33004KT 01/M01 A304 RMK A01 T00051013  RH  088%=      5-min Rain = 0
KTA1 100513Z 33004KT 01/M01 A304 RMK A01 T00051012  RH  089%=      5-min Rain = 0
KTA1 100514Z 33004KT 00/M01 A304 RMK A01 T00041012  RH  089%=      5-min Rain = 0
KTA1 100515Z 33004KT 00/M01 A304 RMK A01 T00031013  RH  089%=      5-min Rain = 0
KTA1 100516Z 33004KT 00/M01 A304 RMK A01 T00021013  RH  090%=      5-min Rain = 0
KTA1 100517Z 32004KT 00/M01 A304 RMK A01 T00021013  RH  090%=      5-min Rain = 0
KTA1 100518Z 32004KT 00/M01 A304 RMK A01 T00011013  RH  090%=      5-min Rain = 0
KTA1 100519Z 31004KT 00/M01 A304 RMK A01 T00011014  RH  090%=      5-min Rain = 0
KTA1 100520Z 30004KT 00/01 A304 RMK A01 T00000-14  RH  090%=      5-min Rain = 0
KTA1 100521Z 30004KT 00/01 A304 RMK A01 T00000-14  RH  090%=      5-min Rain = 0
KTA1 100522Z 31004KT 00/01 A304 RMK A01 T00-00-14  RH  091%=      5-min Rain = 0
KTA1 100523Z 31005KT 00/01 A304 RMK A01 T00-00-14  RH  091%=      5-min Rain = 0
KTA1 100524Z 31005KT M00/M01 A304 RMK A01 T10011014  RH  091%=      5-min Rain = 0
KTA1 100525Z 31005KT M00/M01 A304 RMK A01 T10011014  RH  091%=      5-min Rain = 0
KTA1 100526Z 31005KT M00/M01 A304 RMK A01 T10011014  RH  091%=      5-min Rain = 0
KTA1 100527Z 31005KT M00/M01 A304 RMK A01 T10011014  RH  091%=      5-min Rain = 0
KTA1 100528Z 31005KT M00/M02 A304 RMK A01 T10011015  RH  090%=      5-min Rain = 0
KTA1 100529Z 31004KT M00/M02 A304 RMK A01 T10011015  RH  090%=      5-min Rain = 0
KTA1 100530Z 30004KT M00/M02 A304 RMK A01 T10011015  RH  091%=      5-min Rain = 0
KTA1 100531Z 30004KT M00/M01 A304 RMK A01 T10011014  RH  091%=      5-min Rain = 0
KTA1 100532Z 30004KT M00/M01 A304 RMK A01 T10021014  RH  091%=      5-min Rain = 0
KTA1 100533Z 30004KT M00/M01 A304 RMK A01 T10021014  RH  091%=      5-min Rain = 0
KTA1 100534Z 30004KT M00/M02 A304 RMK A01 T10021015  RH  091%=      5-min Rain = 0
KTA1 100535Z 30004KT M00/M02 A304 RMK A01 T10021015  RH  091%=      5-min Rain = 0
KTA1 100536Z 30004KT M00/M02 A304 RMK A01 T10021015  RH  091%=      5-min Rain = 0
KTA1 100537Z 30003KT M00/M02 A3039 RMK A01 T10031015  RH  091%=      5-min Rain = 0
KTA1 100538Z 30004KT M00/M02 A3039 RMK A01 T10031015  RH  091%=      5-min Rain = 0
KTA1 100539Z 29004KT M00/M02 A3039 RMK A01 T10031015  RH  092%=      5-min Rain = 0
KTA1 100540Z 30004KT M00/M02 A3039 RMK A01 T10031015  RH  092%=      5-min Rain = 0
KTA1 100541Z 30005KT M00/M02 A304 RMK A01 T10031015  RH  092%=      5-min Rain = 0
KTA1 100542Z 30005KT M00/M02 A304 RMK A01 T10031015  RH  092%=      5-min Rain = 0
KTA1 100543Z 30005KT M00/M02 A304 RMK A01 T10031015  RH  092%=      5-min Rain = 0
KTA1 100544Z 31005KT M00/M02 A304 RMK A01 T10031016  RH  091%=      5-min Rain = 0
KTA1 100545Z 31005KT M00/M02 A304 RMK A01 T10031016  RH  091%=      5-min Rain = 0
KTA1 100546Z 31005KT M00/M02 A304 RMK A01 T10031016  RH  091%=      5-min Rain = 0
KTA1 100547Z 31005KT M00/M02 A304 RMK A01 T10031016  RH  091%=      5-min Rain = 0
KTA1 100548Z 31005KT M00/M02 A304 RMK A01 T10021016  RH  090%=      5-min Rain = 0
KTA1 100549Z 31006KT M00/M02 A304 RMK A01 T10031016  RH  090%=      5-min Rain = 0
KTA1 100550Z 31006KT M00/M02 A304 RMK A01 T10031016  RH  090%=      5-min Rain = 0
KTA1 100551Z 32006KT M00/M02 A304 RMK A01 T10031016  RH  091%=      5-min Rain = 0
KTA1 100552Z 32006KT M00/M02 A304 RMK A01 T10031016  RH  091%=      5-min Rain = 0
KTA1 100553Z 32006KT M00/M02 A304 RMK A01 T10031017  RH  091%=      5-min Rain = 0
KTA1 100554Z 32006KT M00/M02 A304 RMK A01 T10031016  RH  091%=      5-min Rain = 0
KTA1 100555Z 32006KT M00/M02 A304 RMK A01 T10031016  RH  091%=      5-min Rain = 0
KTA1 100556Z 32005KT M00/M02 A304 RMK A01 T10031016  RH  091%=      5-min Rain = 0
KTA1 100557Z 32005KT M00/M02 A304 RMK A01 T10031016  RH  091%=      5-min Rain = 0
KTA1 100558Z 32005KT M00/M02 A3039 RMK A01 T10021016  RH  091%=      5-min Rain = 0
KTA1 100559Z 32005KT M00/M02 A3039 RMK A01 T10021015  RH  091%=      5-min Rain = 0

Page generated in 0.1356 seconds.